Wetterdaten: Dienstag, 04.05.2021
Datum Zeit Temp. Aussen Temp. o. S. Temp +5cm Feuchte Auss Luftdruck Regen Sonnenschein Regendauer Solar Windben Empfang
04.05.2021 00:00 11,8 C 11,1 C 8,4 C 59 % 1008,1 hPa 0,0 l/m 0 min 0 min 0 W/m 19,3 km/h (3 Bft) 95,74 %
04.05.2021 00:02 11,8 C 11,1 C 8,4 C 59 % 1008,1 hPa 0,0 l/m 0 min 0 min 0 W/m 19,3 km/h (3 Bft) 92,50 %
04.05.2021 00:04 11,8 C 11,1 C 8,4 C 59 % 1008,0 hPa 0,0 l/m 0 min 0 min 0 W/m 16,1 km/h (3 Bft) 97,87 %
04.05.2021 00:08 11,7 C 11,1 C 8,4 C 59 % 1007,9 hPa 0,0 l/m 0 min 0 min 0 W/m 22,5 km/h (4 Bft) 96,81 %
04.05.2021 00:10 11,7 C 11,1 C 8,4 C 59 % 1007,8 hPa 0,0 l/m 0 min 0 min 0 W/m 22,5 km/h (4 Bft) 93,62 %
04.05.2021 00:12 11,7 C 11,1 C 8,4 C 59 % 1007,8 hPa 0,0 l/m 0 min 0 min 0 W/m 19,3 km/h (3 Bft) 97,87 %
04.05.2021 00:14 11,7 C 11,1 C 8,4 C 59 % 1007,7 hPa 0,0 l/m 0 min 0 min 0 W/m 25,7 km/h (4 Bft) 97,83 %
04.05.2021 00:16 11,7 C 11,1 C 8,4 C 59 % 1007,7 hPa 0,0 l/m 0 min 0 min 0 W/m 16,1 km/h (3 Bft) 98,11 %
04.05.2021 00:18 11,7 C 11,1 C 8,4 C 59 % 1007,6 hPa 0,0 l/m 0 min 0 min 0 W/m 19,3 km/h (3 Bft) 95,74 %
04.05.2021 00:20 11,7 C 11,1 C 8,4 C 59 % 1007,6 hPa 0,0 l/m 0 min 0 min 0 W/m 25,7 km/h (4 Bft) 97,87 %
04.05.2021 00:22 11,7 C 11,1 C 8,4 C 59 % 1007,5 hPa 0,0 l/m 0 min 0 min 0 W/m 22,5 km/h (4 Bft) 97,87 %
04.05.2021 00:24 11,8 C 11,1 C 8,4 C 59 % 1007,3 hPa 0,0 l/m 0 min 0 min 0 W/m 38,6 km/h (5 Bft) 100,00 %
04.05.2021 00:26 11,8 C 11,1 C 8,4 C 59 % 1007,3 hPa 0,0 l/m 0 min 0 min 0 W/m 19,3 km/h (3 Bft) 97,87 %
04.05.2021 00:28 11,8 C 11,1 C 8,4 C 59 % 1007,3 hPa 0,0 l/m 0 min 0 min 0 W/m 22,5 km/h (4 Bft) 100,00 %
04.05.2021 00:30 11,8 C 11,1 C 8,4 C 59 % 1007,2 hPa 0,0 l/m 0 min 0 min 0 W/m 25,7 km/h (4 Bft) 100,00 %
04.05.2021 00:32 11,8 C 11,1 C 8,4 C 59 % 1007,1 hPa 0,0 l/m 0 min 0 min 0 W/m 25,7 km/h (4 Bft) 100,00 %
04.05.2021 00:34 11,8 C 11,1 C 8,4 C 59 % 1007,1 hPa 0,0 l/m 0 min 0 min 0 W/m 22,5 km/h (4 Bft) 100,00 %
04.05.2021 00:36 11,8 C 11,1 C 8,4 C 59 % 1007,1 hPa 0,0 l/m 0 min 0 min 0 W/m 19,3 km/h (3 Bft) 100,00 %
04.05.2021 00:38 11,8 C 11,1 C 8,4 C 59 % 1007,0 hPa 0,0 l/m 0 min 0 min 0 W/m 22,5 km/h (4 Bft) 100,00 %
04.05.2021 00:40 11,8 C 11,1 C 8,4 C 59 % 1007,0 hPa 0,0 l/m 0 min 0 min 0 W/m 16,1 km/h (3 Bft) 100,00 %
04.05.2021 00:42 11,8 C 11,1 C 8,4 C 59 % 1006,9 hPa 0,0 l/m 0 min 0 min 0 W/m 22,5 km/h (4 Bft) 100,00 %
04.05.2021 00:44 11,8 C 11,1 C 8,4 C 59 % 1006,8 hPa 0,0 l/m 0 min 0 min 0 W/m 29,0 km/h (5 Bft) 97,87 %
04.05.2021 00:46 11,8 C 11,1 C 8,4 C 59 % 1006,7 hPa 0,0 l/m 0 min 0 min 0 W/m 29,0 km/h (5 Bft) 100,00 %
04.05.2021 00:48 11,8 C 11,1 C 8,4 C 59 % 1006,7 hPa 0,0 l/m 0 min 0 min 0 W/m 19,3 km/h (3 Bft) 100,00 %
04.05.2021 00:50 11,8 C 11,1 C 8,4 C 59 % 1006,6 hPa 0,0 l/m 0 min 0 min 0 W/m 16,1 km/h (3 Bft) 97,87 %
04.05.2021 00:52 11,8 C 11,1 C 8,4 C 59 % 1006,5 hPa 0,0 l/m 0 min 0 min 0 W/m 16,1 km/h (3 Bft) 100,00 %
04.05.2021 00:54 11,8 C 11,1 C 8,4 C 59 % 1006,5 hPa 0,0 l/m 0 min 0 min 0 W/m 19,3 km/h (3 Bft) 100,00 %
04.05.2021 00:56 11,8 C 11,1 C 8,4 C 59 % 1006,4 hPa 0,0 l/m 0 min 0 min 0 W/m 25,7 km/h (4 Bft) 100,00 %
04.05.2021 00:58 11,8 C 11,1 C 8,4 C 59 % 1006,3 hPa 0,0 l/m 0 min 0 min 0 W/m 12,9 km/h (3 Bft) 100,00 %
04.05.2021 01:00 11,8 C 11,1 C 8,4 C 59 % 1006,2 hPa 0,0 l/m 0 min 0 min 0 W/m 22,5 km/h (4 Bft) 97,83 %
04.05.2021 01:02 11,8 C 11,1 C 8,4 C 59 % 1006,2 hPa 0,0 l/m 0 min 0 min 0 W/m 29,0 km/h (5 Bft) 100,00 %
04.05.2021 01:04 11,8 C 11,1 C 8,4 C 59 % 1006,2 hPa 0,0 l/m 0 min 0 min 0 W/m 16,1 km/h (3 Bft) 97,87 %
04.05.2021 01:06 11,8 C 11,1 C 8,4 C 59 % 1006,1 hPa 0,0 l/m 0 min 0 min 0 W/m 19,3 km/h (3 Bft) 97,87 %
04.05.2021 01:08 11,8 C 11,1 C 8,4 C 59 % 1006,0 hPa 0,0 l/m 0 min 0 min 0 W/m 22,5 km/h (4 Bft) 95,83 %
04.05.2021 01:10 11,8 C 11,1 C 8,4 C 59 % 1005,9 hPa 0,0 l/m 0 min 0 min 0 W/m 19,3 km/h (3 Bft) 100,00 %
04.05.2021 01:12 11,8 C 11,1 C 8,4 C 59 % 1005,9 hPa 0,0 l/m 0 min 0 min 0 W/m 19,3 km/h (3 Bft) 93,62 %
04.05.2021 01:14 11,8 C 11,1 C 8,4 C 59 % 1005,8 hPa 0,0 l/m 0 min 0 min 0 W/m 22,5 km/h (4 Bft) 95,65 %
04.05.2021 01:16 11,8 C 11,1 C 8,4 C 59 % 1005,8 hPa 0,0 l/m 0 min 0 min 0 W/m 32,2 km/h (5 Bft) 97,87 %
04.05.2021 01:18 11,8 C 11,1 C 8,4 C 59 % 1005,7 hPa 0,0 l/m 0 min 0 min 0 W/m 25,7 km/h (4 Bft) 97,87 %
04.05.2021 01:20 11,8 C 11,1 C 8,4 C 59 % 1005,6 hPa 0,0 l/m 0 min 0 min 0 W/m 25,7 km/h (4 Bft) 97,87 %
04.05.2021 01:22 11,8 C 11,1 C 8,4 C 59 % 1005,6 hPa 0,0 l/m 0 min 0 min 0 W/m 22,5 km/h (4 Bft) 97,87 %
04.05.2021 01:24 11,8 C 11,1 C 8,4 C 59 % 1005,5 hPa 0,0 l/m 0 min 0 min 0 W/m 19,3 km/h (3 Bft) 97,87 %
04.05.2021 01:26 11,8 C 11,1 C 8,4 C 58 % 1005,5 hPa 0,0 l/m 0 min 0 min 0 W/m 25,7 km/h (4 Bft) 97,83 %
04.05.2021 01:28 11,8 C 11,1 C 8,4 C 59 % 1005,4 hPa 0,0 l/m 0 min 0 min 0 W/m 19,3 km/h (3 Bft) 97,87 %
04.05.2021 01:30 11,8 C 11,1 C 8,4 C 59 % 1005,5 hPa 0,0 l/m 0 min 0 min 0 W/m 22,5 km/h (4 Bft) 95,74 %
04.05.2021 01:32 11,8 C 11,1 C 8,4 C 59 % 1005,4 hPa 0,0 l/m 0 min 0 min 0 W/m 12,9 km/h (3 Bft) 96,00 %
04.05.2021 01:34 11,8 C 11,1 C 8,4 C 59 % 1005,4 hPa 0,0 l/m 0 min 0 min 0 W/m 19,3 km/h (3 Bft) 97,92 %
04.05.2021 01:36 11,8 C 11,1 C 8,4 C 58 % 1005,2 hPa 0,0 l/m 0 min 0 min 0 W/m 22,5 km/h (4 Bft) 97,83 %
04.05.2021 01:38 11,9 C 11,1 C 8,4 C 58 % 1005,2 hPa 0,0 l/m 0 min 0 min 0 W/m 22,5 km/h (4 Bft) 95,74 %
04.05.2021 01:40 11,9 C 11,1 C 8,4 C 58 % 1005,1 hPa 0,0 l/m 0 min 0 min 0 W/m 22,5 km/h (4 Bft) 97,87 %
04.05.2021 01:42 11,9 C 11,1 C 8,4 C 58 % 1005,1 hPa 0,0 l/m 0 min 0 min 0 W/m 25,7 km/h (4 Bft) 97,87 %
04.05.2021 01:44 11,9 C 11,1 C 8,4 C 58 % 1005,0 hPa 0,0 l/m 0 min 0 min 0 W/m 22,5 km/h (4 Bft) 97,87 %
04.05.2021 01:46 11,9 C 11,1 C 8,4 C 58 % 1004,9 hPa 0,0 l/m 0 min 0 min 0 W/m 25,7 km/h (4 Bft) 93,62 %
04.05.2021 01:48 11,9 C 11,1 C 8,4 C 58 % 1004,8 hPa 0,0 l/m 0 min 0 min 0 W/m 19,3 km/h (3 Bft) 97,83 %
04.05.2021 01:50 11,9 C 11,1 C 8,4 C 58 % 1004,8 hPa 0,0 l/m 0 min 0 min 0 W/m 22,5 km/h (4 Bft) 97,87 %
04.05.2021 01:52 11,9 C 11,1 C 8,4 C 58 % 1004,7 hPa 0,0 l/m 0 min 0 min 0 W/m 25,7 km/h (4 Bft) 100,00 %
04.05.2021 01:54 11,9 C 11,1 C 8,4 C 58 % 1004,7 hPa 0,0 l/m 0 min 0 min 0 W/m 22,5 km/h (4 Bft) 97,87 %
04.05.2021 01:56 11,9 C 11,1 C 8,4 C 58 % 1004,6 hPa 0,0 l/m 0 min 0 min 0 W/m 19,3 km/h (3 Bft) 100,00 %
04.05.2021 01:58 11,9 C 11,1 C 8,4 C 58 % 1004,5 hPa 0,0 l/m 0 min 0 min 0 W/m 22,5 km/h (4 Bft) 100,00 %
04.05.2021 02:00 12,0 C 11,1 C 8,9 C 58 % 1004,4 hPa 0,0 l/m 0 min 0 min 0 W/m 22,5 km/h (4 Bft) 100,00 %
04.05.2021 02:02 12,0 C 11,1 C 8,4 C 58 % 1004,4 hPa 0,0 l/m 0 min 0 min 0 W/m 19,3 km/h (3 Bft) 100,00 %
04.05.2021 02:04 12,0 C 11,1 C 8,4 C 58 % 1004,3 hPa 0,0 l/m 0 min 0 min 0 W/m 22,5 km/h (4 Bft) 97,87 %
04.05.2021 02:06 12,0 C 11,1 C 8,9 C 58 % 1004,3 hPa 0,0 l/m 0 min 0 min 0 W/m 25,7 km/h (4 Bft) 100,00 %
04.05.2021 02:08 12,0 C 11,1 C 8,9 C 58 % 1004,2 hPa 0,0 l/m 0 min 0 min 0 W/m 16,1 km/h (3 Bft) 97,87 %
04.05.2021 02:10 12,0 C 11,1 C 8,9 C 58 % 1004,2 hPa 0,0 l/m 0 min 0 min 0 W/m 29,0 km/h (5 Bft) 97,87 %
04.05.2021 02:12 12,0 C 11,1 C 8,9 C 58 % 1004,1 hPa 0,0 l/m 0 min 0 min 0 W/m 19,3 km/h (3 Bft) 100,00 %
04.05.2021 02:14 12,0 C 11,1 C 8,9 C 58 % 1004,0 hPa 0,0 l/m 0 min 0 min 0 W/m 19,3 km/h (3 Bft) 100,00 %
04.05.2021 02:16 12,0 C 11,1 C 8,9 C 58 % 1004,0 hPa 0,0 l/m 0 min 0 min 0 W/m 22,5 km/h (4 Bft) 100,00 %
04.05.2021 02:18 12,0 C 11,1 C 8,9 C 58 % 1003,9 hPa 0,0 l/m 0 min 0 min 0 W/m 19,3 km/h (3 Bft) 97,87 %
04.05.2021 02:20 12,0 C 11,7 C 8,9 C 58 % 1003,8 hPa 0,0 l/m 0 min 0 min 0 W/m 19,3 km/h (3 Bft) 97,87 %
04.05.2021 02:22 12,0 C 11,7 C 8,9 C 58 % 1003,7 hPa 0,0 l/m 0 min 0 min 0 W/m 29,0 km/h (5 Bft) 97,87 %
04.05.2021 02:24 12,0 C 11,7 C 8,9 C 58 % 1003,7 hPa 0,0 l/m 0 min 0 min 0 W/m 19,3 km/h (3 Bft) 97,83 %
04.05.2021 02:26 12,0 C 11,1 C 8,9 C 58 % 1003,5 hPa 0,0 l/m 0 min 0 min 0 W/m 16,1 km/h (3 Bft) 97,87 %
04.05.2021 02:28 12,0 C 11,7 C 8,9 C 58 % 1003,5 hPa 0,0 l/m 0 min 0 min 0 W/m 19,3 km/h (3 Bft) 97,87 %
04.05.2021 02:30 12,1 C 11,7 C 8,9 C 58 % 1003,5 hPa 0,0 l/m 0 min 0 min 0 W/m 25,7 km/h (4 Bft) 97,87 %
04.05.2021 02:32 12,1 C 11,7 C 8,9 C 58 % 1003,4 hPa 0,0 l/m 0 min 0 min 0 W/m 16,1 km/h (3 Bft) 97,87 %
04.05.2021 02:34 12,1 C 11,7 C 8,9 C 58 % 1003,3 hPa 0,0 l/m 0 min 0 min 0 W/m 19,3 km/h (3 Bft) 97,87 %
04.05.2021 02:36 12,1 C 11,7 C 8,9 C 58 % 1003,3 hPa 0,0 l/m 0 min 0 min 0 W/m 25,7 km/h (4 Bft) 93,48 %
04.05.2021 02:38 12,2 C 11,7 C 8,9 C 57 % 1003,2 hPa 0,0 l/m 0 min 0 min 0 W/m 22,5 km/h (4 Bft) 91,49 %
04.05.2021 02:40 12,3 C 11,7 C 8,9 C 57 % 1003,1 hPa 0,0 l/m 0 min 0 min 0 W/m 22,5 km/h (4 Bft) 95,74 %
04.05.2021 02:42 12,4 C 11,7 C 8,9 C 57 % 1003,0 hPa 0,0 l/m 0 min 0 min 0 W/m 25,7 km/h (4 Bft) 93,62 %
04.05.2021 02:44 12,4 C 12,2 C 8,9 C 56 % 1003,0 hPa 0,0 l/m 0 min 0 min 0 W/m 29,0 km/h (5 Bft) 95,74 %
04.05.2021 02:46 12,5 C 12,2 C 8,9 C 56 % 1002,9 hPa 0,0 l/m 0 min 0 min 0 W/m 19,3 km/h (3 Bft) 95,74 %
04.05.2021 02:48 12,6 C 12,2 C 9,5 C 56 % 1002,8 hPa 0,0 l/m 0 min 0 min 0 W/m 25,7 km/h (4 Bft) 95,65 %
04.05.2021 02:50 12,6 C 12,2 C 9,5 C 55 % 1002,9 hPa 0,0 l/m 0 min 0 min 0 W/m 35,4 km/h (5 Bft) 97,87 %
04.05.2021 02:52 12,8 C 12,2 C 9,5 C 55 % 1002,8 hPa 0,0 l/m 0 min 0 min 0 W/m 35,4 km/h (5 Bft) 95,74 %
04.05.2021 02:54 12,8 C 12,2 C 9,5 C 55 % 1002,7 hPa 0,0 l/m 0 min 0 min 0 W/m 32,2 km/h (5 Bft) 95,74 %
04.05.2021 02:56 12,9 C 12,2 C 9,5 C 55 % 1002,7 hPa 0,0 l/m 0 min 0 min 0 W/m 29,0 km/h (5 Bft) 95,74 %
04.05.2021 02:58 12,9 C 12,2 C 9,5 C 54 % 1002,7 hPa 0,0 l/m 0 min 0 min 0 W/m 32,2 km/h (5 Bft) 95,65 %
04.05.2021 03:00 13,0 C 12,2 C 9,5 C 54 % 1002,7 hPa 0,0 l/m 0 min 0 min 0 W/m 25,7 km/h (4 Bft) 95,74 %
04.05.2021 03:02 13,0 C 12,2 C 9,5 C 54 % 1002,6 hPa 0,0 l/m 0 min 0 min 0 W/m 29,0 km/h (5 Bft) 95,74 %
04.05.2021 03:04 13,0 C 12,2 C 9,5 C 54 % 1002,7 hPa 0,0 l/m 0 min 0 min 0 W/m 32,2 km/h (5 Bft) 95,74 %
04.05.2021 03:06 13,0 C 12,2 C 9,5 C 54 % 1002,5 hPa 0,0 l/m 0 min 0 min 0 W/m 29,0 km/h (5 Bft) 95,74 %
04.05.2021 03:08 13,0 C 12,2 C 9,5 C 54 % 1002,6 hPa 0,0 l/m 0 min 0 min 0 W/m 35,4 km/h (5 Bft) 93,62 %
04.05.2021 03:10 13,0 C 12,2 C 9,5 C 54 % 1002,5 hPa 0,0 l/m 0 min 0 min 0 W/m 29,0 km/h (5 Bft) 97,87 %
04.05.2021 03:12 13,1 C 12,2 C 9,5 C 54 % 1002,6 hPa 0,0 l/m 0 min 0 min 0 W/m 38,6 km/h (5 Bft) 97,83 %
04.05.2021 03:14 13,1 C 12,2 C 9,5 C 54 % 1002,6 hPa 0,0 l/m 0 min 0 min 0 W/m 32,2 km/h (5 Bft) 97,87 %
04.05.2021 03:16 13,1 C 12,2 C 9,5 C 54 % 1002,4 hPa 0,0 l/m 0 min 0 min 0 W/m 38,6 km/h (5 Bft) 97,87 %
04.05.2021 03:18 13,1 C 12,2 C 9,5 C 54 % 1002,7 hPa 0,0 l/m 0 min 0 min 0 W/m 45,1 km/h (6 Bft) 95,74 %
04.05.2021 03:20 13,1 C 12,2 C 9,5 C 54 % 1002,2 hPa 0,0 l/m 0 min 0 min 0 W/m 35,4 km/h (5 Bft) 97,87 %
04.05.2021 03:22 13,1 C 12,2 C 9,5 C 54 % 1002,3 hPa 0,0 l/m 0 min 0 min 0 W/m 38,6 km/h (5 Bft) 95,65 %
04.05.2021 03:24 13,1 C 12,2 C 9,5 C 53 % 1002,2 hPa 0,0 l/m 0 min 0 min 0 W/m 45,1 km/h (6 Bft) 95,74 %
04.05.2021 03:26 13,1 C 12,2 C 9,5 C 54 % 1002,1 hPa 0,0 l/m 0 min 0 min 0 W/m 35,4 km/h (5 Bft) 97,87 %
04.05.2021 03:28 13,1 C 12,2 C 9,5 C 54 % 1002,1 hPa 0,0 l/m 0 min 0 min 0 W/m 45,1 km/h (6 Bft) 97,87 %
04.05.2021 03:30 13,1 C 12,8 C 9,5 C 53 % 1002,1 hPa 0,0 l/m 0 min 0 min 0 W/m 48,3 km/h (6 Bft) 97,87 %
04.05.2021 03:32 13,2 C 12,2 C 9,5 C 53 % 1001,9 hPa 0,0 l/m 0 min 0 min 0 W/m 25,7 km/h (4 Bft) 95,74 %
04.05.2021 03:34 13,2 C 12,2 C 9,5 C 53 % 1002,0 hPa 0,0 l/m 0 min 0 min 0 W/m 41,8 km/h (6 Bft) 97,83 %
04.05.2021 03:36 13,2 C 12,2 C 9,5 C 52 % 1002,0 hPa 0,0 l/m 0 min 0 min 0 W/m 41,8 km/h (6 Bft) 97,87 %
04.05.2021 03:38 13,3 C 12,2 C 9,5 C 52 % 1002,0 hPa 0,0 l/m 0 min 0 min 0 W/m 38,6 km/h (5 Bft) 100,00 %
04.05.2021 03:40 13,3 C 12,8 C 9,5 C 51 % 1001,9 hPa 0,0 l/m 0 min 0 min 0 W/m 32,2 km/h (5 Bft) 100,00 %
04.05.2021 03:42 13,3 C 12,2 C 9,5 C 52 % 1001,9 hPa 0,0 l/m 0 min 0 min 0 W/m 45,1 km/h (6 Bft) 100,00 %
04.05.2021 03:44 13,2 C 12,2 C 9,5 C 52 % 1001,8 hPa 0,0 l/m 0 min 2 min 0 W/m 64,4 km/h (8 Bft) 97,14 %
04.05.2021 03:46 13,1 C 12,2 C 8,9 C 54 % 1002,2 hPa 0,0 l/m 0 min 2 min 0 W/m 38,6 km/h (5 Bft) 100,00 %
04.05.2021 03:48 13,0 C 11,7 C 8,9 C 55 % 1001,8 hPa 0,0 l/m 0 min 2 min 0 W/m 41,8 km/h (6 Bft) 97,87 %
04.05.2021 03:50 12,8 C 11,7 C 8,9 C 55 % 1002,2 hPa 0,0 l/m 0 min 2 min 0 W/m 41,8 km/h (6 Bft) 97,87 %
04.05.2021 03:52 12,6 C 11,7 C 7,8 C 57 % 1002,3 hPa 0,0 l/m 0 min 2 min 0 W/m 38,6 km/h (5 Bft) 97,87 %
04.05.2021 03:54 12,4 C 11,1 C 7,3 C 60 % 1002,3 hPa 0,0 l/m 0 min 2 min 0 W/m 61,2 km/h (7 Bft) 95,74 %
04.05.2021 03:56 12,1 C 10,6 C 6,7 C 60 % 1002,3 hPa 0,0 l/m 0 min 2 min 0 W/m 57,9 km/h (7 Bft) 97,83 %
04.05.2021 03:58 12,0 C 10,6 C 6,7 C 61 % 1002,3 hPa 0,0 l/m 0 min 2 min 0 W/m 54,7 km/h (7 Bft) 97,87 %
04.05.2021 04:00 11,8 C 10,6 C 6,1 C 62 % 1002,2 hPa 0,0 l/m 0 min 2 min 0 W/m 48,3 km/h (6 Bft) 97,87 %
04.05.2021 04:02 11,7 C 10,6 C 6,1 C 64 % 1002,3 hPa 0,0 l/m 0 min 2 min 0 W/m 48,3 km/h (6 Bft) 100,00 %
04.05.2021 04:04 11,4 C 10,0 C 6,1 C 64 % 1002,2 hPa 0,0 l/m 0 min 2 min 0 W/m 67,6 km/h (8 Bft) 100,00 %
04.05.2021 04:06 11,3 C 9,4 C 6,1 C 67 % 1002,2 hPa 0,0 l/m 0 min 2 min 0 W/m 57,9 km/h (7 Bft) 97,87 %
04.05.2021 04:08 11,0 C 9,4 C 5,6 C 68 % 1002,0 hPa 0,0 l/m 0 min 2 min 0 W/m 51,5 km/h (7 Bft) 97,87 %
04.05.2021 04:10 10,8 C 9,4 C 5,6 C 69 % 1002,2 hPa 0,0 l/m 0 min 2 min 0 W/m 54,7 km/h (7 Bft) 97,67 %
04.05.2021 04:12 10,7 C 8,9 C 5,0 C 71 % 1002,0 hPa 0,0 l/m 0 min 2 min 0 W/m 35,4 km/h (5 Bft) 97,87 %
04.05.2021 04:14 10,5 C 8,9 C 5,0 C 71 % 1001,9 hPa 0,0 l/m 0 min 2 min 0 W/m 32,2 km/h (5 Bft) 97,87 %
04.05.2021 04:16 10,4 C 8,9 C 5,0 C 72 % 1002,2 hPa 0,2 l/m 0 min 2 min 0 W/m 48,3 km/h (6 Bft) 97,87 %
04.05.2021 04:18 10,3 C 8,9 C 4,5 C 73 % 1002,1 hPa 0,0 l/m 0 min 2 min 0 W/m 41,8 km/h (6 Bft) 97,87 %
04.05.2021 04:20 10,1 C 8,3 C 4,5 C 73 % 1001,9 hPa 0,0 l/m 0 min 2 min 0 W/m 48,3 km/h (6 Bft) 95,74 %
04.05.2021 04:22 10,0 C 8,3 C 4,5 C 73 % 1002,0 hPa 0,0 l/m 0 min 2 min 0 W/m 38,6 km/h (5 Bft) 95,65 %
04.05.2021 04:24 10,0 C 7,8 C 4,5 C 75 % 1001,9 hPa 0,0 l/m 0 min 2 min 0 W/m 41,8 km/h (6 Bft) 95,74 %
04.05.2021 04:26 9,9 C 7,8 C 4,5 C 75 % 1002,0 hPa 0,2 l/m 0 min 2 min 0 W/m 54,7 km/h (7 Bft) 97,87 %
04.05.2021 04:28 9,8 C 7,8 C 4,5 C 76 % 1001,8 hPa 0,0 l/m 0 min 2 min 0 W/m 38,6 km/h (5 Bft) 97,87 %
04.05.2021 04:30 9,7 C 7,8 C 4,5 C 76 % 1001,8 hPa 0,0 l/m 0 min 2 min 0 W/m 35,4 km/h (5 Bft) 97,87 %
04.05.2021 04:32 9,6 C 7,8 C 4,5 C 77 % 1001,7 hPa 0,0 l/m 0 min 2 min 0 W/m 29,0 km/h (5 Bft) 97,87 %
04.05.2021 04:34 9,6 C 7,8 C 4,5 C 77 % 1001,6 hPa 0,0 l/m 0 min 2 min 0 W/m 38,6 km/h (5 Bft) 97,83 %
04.05.2021 04:36 9,5 C 7,2 C 3,9 C 77 % 1001,9 hPa 0,2 l/m 0 min 2 min 0 W/m 45,1 km/h (6 Bft) 95,74 %
04.05.2021 04:38 9,5 C 7,8 C 3,9 C 77 % 1001,4 hPa 0,0 l/m 0 min 2 min 0 W/m 32,2 km/h (5 Bft) 97,87 %
04.05.2021 04:40 9,5 C 7,2 C 3,9 C 78 % 1001,3 hPa 0,0 l/m 0 min 2 min 0 W/m 38,6 km/h (5 Bft) 96,00 %
04.05.2021 04:42 9,4 C 7,2 C 3,9 C 78 % 1001,4 hPa 0,2 l/m 0 min 2 min 0 W/m 25,7 km/h (4 Bft) 97,87 %
04.05.2021 04:44 9,4 C 7,2 C 3,9 C 79 % 1001,2 hPa 0,0 l/m 0 min 2 min 0 W/m 25,7 km/h (4 Bft) 97,83 %
04.05.2021 04:46 9,3 C 7,2 C 3,9 C 79 % 1001,1 hPa 0,0 l/m 0 min 2 min 0 W/m 29,0 km/h (5 Bft) 97,87 %
04.05.2021 04:48 9,2 C 7,2 C 3,9 C 80 % 1001,1 hPa 0,0 l/m 0 min 2 min 0 W/m 35,4 km/h (5 Bft) 100,00 %
04.05.2021 04:50 9,1 C 7,2 C 3,9 C 80 % 1000,9 hPa 0,0 l/m 0 min 2 min 0 W/m 25,7 km/h (4 Bft) 100,00 %
04.05.2021 04:52 9,1 C 7,2 C 4,5 C 81 % 1001,1 hPa 0,0 l/m 0 min 2 min 0 W/m 25,7 km/h (4 Bft) 100,00 %
04.05.2021 04:54 9,1 C 7,8 C 4,5 C 81 % 1001,1 hPa 0,0 l/m 0 min 2 min 0 W/m 29,0 km/h (5 Bft) 95,74 %
04.05.2021 04:56 9,0 C 7,8 C 4,5 C 81 % 1001,0 hPa 0,0 l/m 0 min 2 min 0 W/m 29,0 km/h (5 Bft) 97,83 %
04.05.2021 04:58 9,0 C 7,8 C 4,5 C 81 % 1001,1 hPa 0,0 l/m 0 min 2 min 0 W/m 19,3 km/h (3 Bft) 97,87 %
04.05.2021 05:00 9,0 C 7,8 C 4,5 C 82 % 1001,0 hPa 0,0 l/m 0 min 2 min 0 W/m 32,2 km/h (5 Bft) 100,00 %
04.05.2021 05:02 8,9 C 7,8 C 4,5 C 82 % 1001,0 hPa 0,0 l/m 0 min 2 min 0 W/m 22,5 km/h (4 Bft) 97,87 %
04.05.2021 05:04 8,9 C 7,8 C 4,5 C 82 % 1001,0 hPa 0,2 l/m 0 min 2 min 0 W/m 41,8 km/h (6 Bft) 100,00 %
04.05.2021 05:06 8,9 C 7,2 C 3,9 C 81 % 1001,0 hPa 0,0 l/m 0 min 2 min 0 W/m 41,8 km/h (6 Bft) 97,87 %
04.05.2021 05:08 8,9 C 7,2 C 3,9 C 81 % 1001,2 hPa 0,0 l/m 0 min 2 min 0 W/m 45,1 km/h (6 Bft) 76,09 %
04.05.2021 05:10 8,9 C 7,2 C 3,9 C 81 % 1000,9 hPa 0,0 l/m 0 min 2 min 0 W/m 51,5 km/h (7 Bft) 80,43 %
04.05.2021 05:12 8,9 C 7,2 C 3,9 C 80 % 1000,8 hPa 0,0 l/m 0 min 2 min 0 W/m 32,2 km/h (5 Bft) 97,87 %
04.05.2021 05:14 8,8 C 7,2 C 3,9 C 81 % 1000,7 hPa 0,0 l/m 0 min 2 min 0 W/m 38,6 km/h (5 Bft) 97,87 %
04.05.2021 05:16 8,8 C 7,2 C 3,9 C 80 % 1000,9 hPa 0,0 l/m 0 min 2 min 0 W/m 38,6 km/h (5 Bft) 95,74 %
04.05.2021 05:18 8,8 C 7,8 C 3,9 C 81 % 1000,7 hPa 0,0 l/m 0 min 2 min 0 W/m 32,2 km/h (5 Bft) 95,74 %
04.05.2021 05:20 8,8 C 7,2 C 3,9 C 81 % 1000,7 hPa 0,0 l/m 0 min 2 min 0 W/m 35,4 km/h (5 Bft) 97,83 %
04.05.2021 05:22 8,8 C 7,8 C 3,9 C 81 % 1000,8 hPa 0,0 l/m 0 min 2 min 0 W/m 51,5 km/h (7 Bft) 95,74 %
04.05.2021 05:24 8,8 C 7,8 C 3,9 C 81 % 1000,8 hPa 0,0 l/m 0 min 2 min 0 W/m 35,4 km/h (5 Bft) 95,74 %
04.05.2021 05:26 8,8 C 7,8 C 3,9 C 81 % 1000,8 hPa 0,0 l/m 0 min 2 min 0 W/m 38,6 km/h (5 Bft) 97,87 %
04.05.2021 05:28 8,8 C 7,2 C 3,9 C 81 % 1000,7 hPa 0,0 l/m 0 min 2 min 0 W/m 41,8 km/h (6 Bft) 95,74 %
04.05.2021 05:30 8,8 C 7,2 C 3,9 C 81 % 1000,8 hPa 0,0 l/m 0 min 2 min 0 W/m 32,2 km/h (5 Bft) 97,83 %
04.05.2021 05:32 8,7 C 7,2 C 3,9 C 81 % 1000,7 hPa 0,0 l/m 0 min 2 min 0 W/m 32,2 km/h (5 Bft) 97,87 %
04.05.2021 05:34 8,7 C 7,2 C 3,9 C 81 % 1000,8 hPa 0,0 l/m 0 min 2 min 0 W/m 25,7 km/h (4 Bft) 97,87 %
04.05.2021 05:36 8,6 C 7,2 C 3,9 C 81 % 1000,8 hPa 0,0 l/m 0 min 2 min 0 W/m 64,4 km/h (8 Bft) 97,87 %
04.05.2021 05:38 8,6 C 7,2 C 3,9 C 81 % 1001,1 hPa 0,0 l/m 0 min 2 min 0 W/m 45,1 km/h (6 Bft) 97,87 %
04.05.2021 05:40 8,5 C 7,2 C 3,9 C 82 % 1000,7 hPa 0,2 l/m 0 min 2 min 0 W/m 32,2 km/h (5 Bft) 97,87 %
04.05.2021 05:42 8,5 C 7,2 C 3,9 C 82 % 1000,6 hPa 0,0 l/m 0 min 2 min 0 W/m 32,2 km/h (5 Bft) 97,87 %
04.05.2021 05:44 8,5 C 7,2 C 3,9 C 82 % 1000,6 hPa 0,0 l/m 0 min 2 min 0 W/m 35,4 km/h (5 Bft) 97,83 %
04.05.2021 05:46 8,5 C 7,2 C 3,9 C 82 % 1000,5 hPa 0,0 l/m 0 min 2 min 0 W/m 29,0 km/h (5 Bft) 96,23 %
04.05.2021 05:48 8,5 C 7,2 C 3,9 C 83 % 1000,4 hPa 0,0 l/m 0 min 2 min 0 W/m 35,4 km/h (5 Bft) 100,00 %
04.05.2021 05:50 8,4 C 7,2 C 3,9 C 83 % 1000,3 hPa 0,0 l/m 0 min 2 min 0 W/m 41,8 km/h (6 Bft) 95,74 %
04.05.2021 05:52 8,4 C 7,2 C 4,5 C 82 % 1000,3 hPa 0,0 l/m 0 min 2 min 0 W/m 22,5 km/h (4 Bft) 97,83 %
04.05.2021 05:54 8,4 C 7,2 C 4,5 C 83 % 1000,3 hPa 0,0 l/m 0 min 2 min 0 W/m 25,7 km/h (4 Bft) 97,87 %
04.05.2021 05:56 8,4 C 7,2 C 4,5 C 83 % 1000,4 hPa 0,0 l/m 0 min 2 min 0 W/m 45,1 km/h (6 Bft) 97,87 %
04.05.2021 05:58 8,5 C 7,2 C 4,5 C 82 % 1000,2 hPa 0,0 l/m 0 min 2 min 0 W/m 19,3 km/h (3 Bft) 100,00 %
04.05.2021 06:00 8,5 C 7,2 C 4,5 C 83 % 1000,3 hPa 0,0 l/m 0 min 2 min 0 W/m 25,7 km/h (4 Bft) 100,00 %
04.05.2021 06:02 8,5 C 7,2 C 4,5 C 83 % 1000,2 hPa 0,0 l/m 0 min 2 min 0 W/m 32,2 km/h (5 Bft) 100,00 %
04.05.2021 06:04 8,5 C 7,2 C 4,5 C 83 % 1000,2 hPa 0,0 l/m 0 min 2 min 0 W/m 19,3 km/h (3 Bft) 97,56 %
04.05.2021 06:08 8,5 C 7,2 C 4,5 C 83 % 1000,2 hPa 0,0 l/m 0 min 4 min 0 W/m 29,0 km/h (5 Bft) 98,78 %
04.05.2021 06:10 8,5 C 7,2 C 4,5 C 83 % 1000,2 hPa 0,0 l/m 0 min 2 min 0 W/m 29,0 km/h (5 Bft) 100,00 %
04.05.2021 06:12 8,5 C 7,2 C 4,5 C 83 % 1000,0 hPa 0,0 l/m 0 min 2 min 0 W/m 45,1 km/h (6 Bft) 95,74 %
04.05.2021 06:14 8,5 C 7,8 C 4,5 C 83 % 1000,0 hPa 0,0 l/m 0 min 2 min 0 W/m 32,2 km/h (5 Bft) 100,00 %
04.05.2021 06:16 8,5 C 7,8 C 4,5 C 83 % 1000,2 hPa 0,0 l/m 0 min 2 min 0 W/m 29,0 km/h (5 Bft) 100,00 %
04.05.2021 06:18 8,5 C 7,8 C 4,5 C 83 % 1000,0 hPa 0,0 l/m 0 min 2 min 0 W/m 22,5 km/h (4 Bft) 100,00 %
04.05.2021 06:20 8,5 C 7,8 C 4,5 C 83 % 999,9 hPa 0,0 l/m 0 min 0 min 0 W/m 32,2 km/h (5 Bft) 100,00 %
04.05.2021 06:22 8,5 C 7,8 C 4,5 C 83 % 999,9 hPa 0,0 l/m 0 min 0 min 0 W/m 25,7 km/h (4 Bft) 100,00 %
04.05.2021 06:24 8,5 C 7,8 C 4,5 C 83 % 999,9 hPa 0,0 l/m 0 min 2 min 0 W/m 32,2 km/h (5 Bft) 100,00 %
04.05.2021 06:26 8,5 C 7,8 C 4,5 C 83 % 999,9 hPa 0,0 l/m 0 min 0 min 6 W/m 45,1 km/h (6 Bft) 100,00 %
04.05.2021 06:28 8,6 C 7,8 C 4,5 C 82 % 1000,0 hPa 0,0 l/m 0 min 0 min 6 W/m 35,4 km/h (5 Bft) 100,00 %
04.05.2021 06:30 8,6 C 7,8 C 4,5 C 82 % 999,9 hPa 0,0 l/m 0 min 0 min 2 W/m 38,6 km/h (5 Bft) 100,00 %
04.05.2021 06:32 8,6 C 7,8 C 4,5 C 82 % 999,9 hPa 0,0 l/m 0 min 2 min 4 W/m 35,4 km/h (5 Bft) 100,00 %
04.05.2021 06:34 8,6 C 7,8 C 4,5 C 82 % 999,8 hPa 0,0 l/m 0 min 2 min 13 W/m 22,5 km/h (4 Bft) 96,61 %
04.05.2021 06:36 8,7 C 7,8 C 4,5 C 82 % 999,8 hPa 0,0 l/m 0 min 0 min 18 W/m 32,2 km/h (5 Bft) 100,00 %
04.05.2021 06:38 8,7 C 7,8 C 4,5 C 82 % 999,7 hPa 0,0 l/m 0 min 0 min 14 W/m 19,3 km/h (3 Bft) 97,83 %
04.05.2021 06:40 8,7 C 7,8 C 4,5 C 82 % 999,7 hPa 0,0 l/m 0 min 2 min 12 W/m 41,8 km/h (6 Bft) 100,00 %
04.05.2021 06:42 8,8 C 7,8 C 4,5 C 81 % 999,6 hPa 0,0 l/m 0 min 0 min 10 W/m 51,5 km/h (7 Bft) 95,65 %
04.05.2021 06:44 8,8 C 7,8 C 4,5 C 81 % 999,5 hPa 0,0 l/m 0 min 0 min 13 W/m 45,1 km/h (6 Bft) 100,00 %
04.05.2021 06:46 8,8 C 7,8 C 5,0 C 82 % 999,6 hPa 0,0 l/m 0 min 0 min 15 W/m 32,2 km/h (5 Bft) 95,74 %
04.05.2021 06:48 8,8 C 7,8 C 4,5 C 81 % 999,5 hPa 0,0 l/m 0 min 0 min 12 W/m 32,2 km/h (5 Bft) 97,87 %
04.05.2021 06:50 8,8 C 7,8 C 5,0 C 81 % 999,5 hPa 0,0 l/m 0 min 0 min 10 W/m 32,2 km/h (5 Bft) 95,74 %
04.05.2021 06:52 8,9 C 8,3 C 5,0 C 81 % 999,5 hPa 0,0 l/m 0 min 0 min 14 W/m 48,3 km/h (6 Bft) 97,87 %
04.05.2021 06:54 8,9 C 8,3 C 5,0 C 81 % 999,5 hPa 0,0 l/m 0 min 0 min 20 W/m 32,2 km/h (5 Bft) 97,83 %
04.05.2021 06:56 8,9 C 8,3 C 5,0 C 81 % 999,6 hPa 0,0 l/m 0 min 0 min 18 W/m 38,6 km/h (5 Bft) 97,87 %
04.05.2021 06:58 8,9 C 8,3 C 5,0 C 81 % 999,4 hPa 0,0 l/m 0 min 0 min 17 W/m 32,2 km/h (5 Bft) 97,87 %
04.05.2021 07:00 9,0 C 8,3 C 5,0 C 81 % 999,5 hPa 0,0 l/m 0 min 0 min 15 W/m 35,4 km/h (5 Bft) 95,74 %
04.05.2021 07:02 9,0 C 8,3 C 5,0 C 81 % 999,3 hPa 0,0 l/m 0 min 0 min 13 W/m 41,8 km/h (6 Bft) 93,62 %
04.05.2021 07:04 9,0 C 8,3 C 5,0 C 81 % 999,3 hPa 0,0 l/m 0 min 0 min 7 W/m 48,3 km/h (6 Bft) 95,65 %
04.05.2021 07:06 9,0 C 8,3 C 5,0 C 81 % 999,3 hPa 0,0 l/m 0 min 0 min 7 W/m 35,4 km/h (5 Bft) 95,74 %
04.05.2021 07:08 9,0 C 8,3 C 5,0 C 81 % 999,3 hPa 0,0 l/m 0 min 0 min 7 W/m 32,2 km/h (5 Bft) 95,74 %
04.05.2021 07:10 9,0 C 8,3 C 5,0 C 81 % 999,3 hPa 0,0 l/m 0 min 0 min 8 W/m 29,0 km/h (5 Bft) 96,00 %
04.05.2021 07:12 9,0 C 8,3 C 5,0 C 81 % 999,3 hPa 0,0 l/m 0 min 0 min 9 W/m 35,4 km/h (5 Bft) 95,74 %
04.05.2021 07:14 9,0 C 8,3 C 5,0 C 81 % 999,2 hPa 0,0 l/m 0 min 0 min 11 W/m 32,2 km/h (5 Bft) 93,62 %
04.05.2021 07:16 9,1 C 8,3 C 5,0 C 81 % 999,2 hPa 0,0 l/m 0 min 0 min 15 W/m 29,0 km/h (5 Bft) 95,65 %
04.05.2021 07:18 9,1 C 8,3 C 5,0 C 81 % 999,3 hPa 0,0 l/m 0 min 0 min 18 W/m 38,6 km/h (5 Bft) 93,62 %
04.05.2021 07:20 9,1 C 8,3 C 5,0 C 81 % 999,2 hPa 0,0 l/m 0 min 0 min 18 W/m 48,3 km/h (6 Bft) 95,74 %
04.05.2021 07:22 9,1 C 8,3 C 5,0 C 82 % 999,4 hPa 0,0 l/m 0 min 2 min 15 W/m 51,5 km/h (7 Bft) 95,74 %
04.05.2021 07:24 9,0 C 8,3 C 5,0 C 82 % 999,1 hPa 0,0 l/m 0 min 0 min 14 W/m 41,8 km/h (6 Bft) 95,74 %
04.05.2021 07:26 9,0 C 8,3 C 5,0 C 82 % 999,3 hPa 0,0 l/m 0 min 0 min 13 W/m 41,8 km/h (6 Bft) 95,65 %
04.05.2021 07:28 9,0 C 8,3 C 5,0 C 82 % 999,1 hPa 0,0 l/m 0 min 0 min 13 W/m 38,6 km/h (5 Bft) 95,74 %
04.05.2021 07:30 9,0 C 8,3 C 5,0 C 82 % 999,1 hPa 0,0 l/m 0 min 0 min 15 W/m 41,8 km/h (6 Bft) 95,74 %
04.05.2021 07:32 9,0 C 8,3 C 5,0 C 82 % 999,0 hPa 0,0 l/m 0 min 0 min 16 W/m 45,1 km/h (6 Bft) 93,62 %
04.05.2021 07:34 9,0 C 8,3 C 5,0 C 82 % 999,3 hPa 0,0 l/m 0 min 0 min 15 W/m 38,6 km/h (5 Bft) 93,62 %
04.05.2021 07:36 9,1 C 8,3 C 5,0 C 82 % 999,2 hPa 0,0 l/m 0 min 0 min 16 W/m 38,6 km/h (5 Bft) 93,62 %
04.05.2021 07:38 9,1 C 8,3 C 5,6 C 82 % 999,0 hPa 0,0 l/m 0 min 0 min 17 W/m 38,6 km/h (5 Bft) 95,65 %
04.05.2021 07:40 9,1 C 8,3 C 5,6 C 82 % 998,8 hPa 0,0 l/m 0 min 0 min 18 W/m 61,2 km/h (7 Bft) 95,74 %
04.05.2021 07:42 9,2 C 8,9 C 5,6 C 82 % 999,1 hPa 0,0 l/m 0 min 0 min 16 W/m 57,9 km/h (7 Bft) 93,62 %
04.05.2021 07:44 9,2 C 8,9 C 5,6 C 81 % 999,0 hPa 0,0 l/m 0 min 0 min 19 W/m 38,6 km/h (5 Bft) 95,74 %
04.05.2021 07:46 9,3 C 8,9 C 6,1 C 81 % 998,9 hPa 0,0 l/m 0 min 0 min 23 W/m 57,9 km/h (7 Bft) 96,23 %
04.05.2021 07:48 9,3 C 8,9 C 6,1 C 81 % 998,8 hPa 0,0 l/m 0 min 0 min 24 W/m 45,1 km/h (6 Bft) 91,30 %
04.05.2021 07:50 9,4 C 8,9 C 6,1 C 81 % 999,1 hPa 0,0 l/m 0 min 0 min 22 W/m 38,6 km/h (5 Bft) 91,67 %
04.05.2021 07:52 9,4 C 8,9 C 6,1 C 81 % 998,9 hPa 0,0 l/m 0 min 0 min 20 W/m 45,1 km/h (6 Bft) 94,83 %
04.05.2021 07:54 9,4 C 8,9 C 6,1 C 81 % 998,9 hPa 0,0 l/m 0 min 0 min 19 W/m 51,5 km/h (7 Bft) 91,43 %
04.05.2021 07:56 9,5 C 8,9 C 6,1 C 81 % 999,0 hPa 0,0 l/m 0 min 0 min 20 W/m 51,5 km/h (7 Bft) 95,74 %
04.05.2021 07:58 9,5 C 8,9 C 6,7 C 81 % 999,0 hPa 0,0 l/m 0 min 0 min 24 W/m 54,7 km/h (7 Bft) 97,87 %
04.05.2021 08:00 9,5 C 8,9 C 6,7 C 81 % 999,0 hPa 0,0 l/m 0 min 0 min 26 W/m 41,8 km/h (6 Bft) 98,28 %
04.05.2021 08:02 9,5 C 8,9 C 6,7 C 81 % 998,9 hPa 0,0 l/m 0 min 0 min 30 W/m 45,1 km/h (6 Bft) 97,87 %
04.05.2021 08:04 9,5 C 8,9 C 6,7 C 81 % 998,9 hPa 0,0 l/m 0 min 0 min 33 W/m 35,4 km/h (5 Bft) 95,74 %
04.05.2021 08:06 9,5 C 8,9 C 6,7 C 81 % 999,0 hPa 0,0 l/m 0 min 0 min 42 W/m 35,4 km/h (5 Bft) 93,62 %
04.05.2021 08:08 9,5 C 8,9 C 6,7 C 81 % 999,1 hPa 0,0 l/m 0 min 0 min 61 W/m 25,7 km/h (4 Bft) 97,87 %
04.05.2021 08:10 9,6 C 9,4 C 6,7 C 81 % 999,2 hPa 0,0 l/m 0 min 0 min 79 W/m 48,3 km/h (6 Bft) 97,37 %
04.05.2021 08:12 9,6 C 9,4 C 6,7 C 80 % 999,0 hPa 0,0 l/m 0 min 0 min 128 W/m 51,5 km/h (7 Bft) 97,87 %
04.05.2021 08:14 9,8 C 9,4 C 7,3 C 80 % 999,0 hPa 0,0 l/m 2 min 0 min 184 W/m 48,3 km/h (6 Bft) 97,83 %
04.05.2021 08:16 9,8 C 10,0 C 7,3 C 80 % 998,9 hPa 0,0 l/m 2 min 0 min 251 W/m 51,5 km/h (7 Bft) 95,74 %
04.05.2021 08:18 9,9 C 10,0 C 7,3 C 80 % 998,8 hPa 0,0 l/m 2 min 0 min 269 W/m 41,8 km/h (6 Bft) 93,62 %
04.05.2021 08:20 10,0 C 10,0 C 7,3 C 80 % 998,8 hPa 0,0 l/m 2 min 0 min 232 W/m 48,3 km/h (6 Bft) 97,87 %
04.05.2021 08:22 10,1 C 10,0 C 7,3 C 79 % 998,8 hPa 0,0 l/m 2 min 0 min 238 W/m 41,8 km/h (6 Bft) 95,74 %
04.05.2021 08:24 10,1 C 10,0 C 7,3 C 79 % 998,8 hPa 0,0 l/m 0 min 0 min 92 W/m 45,1 km/h (6 Bft) 97,87 %
04.05.2021 08:26 10,1 C 10,0 C 7,3 C 79 % 998,8 hPa 0,0 l/m 0 min 0 min 70 W/m 32,2 km/h (5 Bft) 95,65 %
04.05.2021 08:28 10,1 C 9,4 C 7,3 C 79 % 998,9 hPa 0,0 l/m 0 min 0 min 45 W/m 38,6 km/h (5 Bft) 95,74 %
04.05.2021 08:30 10,1 C 9,4 C 7,3 C 79 % 998,8 hPa 0,0 l/m 0 min 0 min 40 W/m 38,6 km/h (5 Bft) 97,87 %
04.05.2021 08:32 10,1 C 9,4 C 7,3 C 79 % 998,9 hPa 0,0 l/m 0 min 0 min 35 W/m 54,7 km/h (7 Bft) 97,87 %
04.05.2021 08:34 10,0 C 9,4 C 6,7 C 80 % 998,9 hPa 0,0 l/m 0 min 0 min 31 W/m 35,4 km/h (5 Bft) 97,87 %
04.05.2021 08:36 10,0 C 9,4 C 6,7 C 80 % 998,8 hPa 0,0 l/m 0 min 0 min 30 W/m 45,1 km/h (6 Bft) 97,87 %
04.05.2021 08:38 9,9 C 9,4 C 6,7 C 80 % 999,0 hPa 0,0 l/m 0 min 2 min 29 W/m 48,3 km/h (6 Bft) 97,96 %
04.05.2021 08:40 9,9 C 9,4 C 6,7 C 81 % 999,0 hPa 0,0 l/m 0 min 2 min 38 W/m 48,3 km/h (6 Bft) 97,87 %
04.05.2021 08:42 9,9 C 8,9 C 6,7 C 82 % 999,0 hPa 0,0 l/m 0 min 2 min 44 W/m 32,2 km/h (5 Bft) 100,00 %
04.05.2021 08:44 9,8 C 8,9 C 6,1 C 82 % 999,0 hPa 0,0 l/m 0 min 2 min 40 W/m 41,8 km/h (6 Bft) 97,87 %
04.05.2021 08:46 9,7 C 8,9 C 6,1 C 83 % 999,0 hPa 0,0 l/m 0 min 2 min 40 W/m 41,8 km/h (6 Bft) 100,00 %
04.05.2021 08:48 9,6 C 8,9 C 6,1 C 83 % 998,9 hPa 0,0 l/m 0 min 2 min 65 W/m 45,1 km/h (6 Bft) 100,00 %
04.05.2021 08:50 9,6 C 8,9 C 6,1 C 84 % 998,8 hPa 0,0 l/m 0 min 2 min 83 W/m 35,4 km/h (5 Bft) 100,00 %
04.05.2021 08:52 9,5 C 8,3 C 5,6 C 84 % 998,9 hPa 0,0 l/m 0 min 2 min 42 W/m 25,7 km/h (4 Bft) 100,00 %
04.05.2021 08:54 9,5 C 8,3 C 5,6 C 85 % 998,9 hPa 0,0 l/m 0 min 2 min 39 W/m 41,8 km/h (6 Bft) 100,00 %
04.05.2021 08:56 9,4 C 8,3 C 5,6 C 85 % 999,0 hPa 0,0 l/m 0 min 2 min 38 W/m 38,6 km/h (5 Bft) 100,00 %
04.05.2021 08:58 9,4 C 8,3 C 5,6 C 85 % 998,8 hPa 0,0 l/m 0 min 2 min 39 W/m 38,6 km/h (5 Bft) 98,00 %
04.05.2021 09:00 9,4 C 7,8 C 5,6 C 86 % 998,7 hPa 0,0 l/m 0 min 2 min 38 W/m 29,0 km/h (5 Bft) 97,96 %
04.05.2021 09:02 9,3 C 8,3 C 5,6 C 86 % 998,6 hPa 0,0 l/m 0 min 2 min 43 W/m 22,5 km/h (4 Bft) 97,37 %
04.05.2021 09:04 9,3 C 8,3 C 5,6 C 86 % 998,6 hPa 0,0 l/m 0 min 2 min 24 W/m 38,6 km/h (5 Bft) 98,00 %
04.05.2021 09:06 9,3 C 8,3 C 5,6 C 86 % 998,7 hPa 0,0 l/m 0 min 0 min 21 W/m 29,0 km/h (5 Bft) 97,87 %
04.05.2021 09:08 9,3 C 8,3 C 5,6 C 86 % 998,6 hPa 0,0 l/m 0 min 2 min 35 W/m 29,0 km/h (5 Bft) 100,00 %
04.05.2021 09:10 9,3 C 8,3 C 5,6 C 86 % 998,5 hPa 0,0 l/m 0 min 2 min 36 W/m 35,4 km/h (5 Bft) 100,00 %
04.05.2021 09:12 9,4 C 8,3 C 5,6 C 86 % 998,5 hPa 0,2 l/m 0 min 2 min 38 W/m 38,6 km/h (5 Bft) 100,00 %
04.05.2021 09:14 9,4 C 8,3 C 5,6 C 86 % 998,6 hPa 0,0 l/m 0 min 2 min 41 W/m 29,0 km/h (5 Bft) 100,00 %
04.05.2021 09:16 9,4 C 8,3 C 5,6 C 86 % 998,5 hPa 0,0 l/m 0 min 2 min 41 W/m 45,1 km/h (6 Bft) 100,00 %
04.05.2021 09:18 9,4 C 8,3 C 5,6 C 86 % 998,6 hPa 0,0 l/m 0 min 2 min 29 W/m 48,3 km/h (6 Bft) 100,00 %
04.05.2021 09:20 9,3 C 7,8 C 5,6 C 86 % 998,7 hPa 0,0 l/m 0 min 2 min 41 W/m 45,1 km/h (6 Bft) 100,00 %
04.05.2021 09:22 9,3 C 7,8 C 5,6 C 86 % 998,7 hPa 0,2 l/m 0 min 2 min 48 W/m 51,5 km/h (7 Bft) 100,00 %
04.05.2021 09:24 9,3 C 7,8 C 5,6 C 87 % 998,7 hPa 0,0 l/m 0 min 2 min 82 W/m 41,8 km/h (6 Bft) 100,00 %
04.05.2021 09:26 9,3 C 7,8 C 5,6 C 87 % 998,5 hPa 0,0 l/m 0 min 2 min 123 W/m 38,6 km/h (5 Bft) 100,00 %
04.05.2021 09:28 9,3 C 8,3 C 5,6 C 88 % 998,4 hPa 0,0 l/m 0 min 2 min 93 W/m 41,8 km/h (6 Bft) 100,00 %
04.05.2021 09:30 9,3 C 8,3 C 5,6 C 88 % 998,6 hPa 0,0 l/m 0 min 2 min 69 W/m 38,6 km/h (5 Bft) 100,00 %
04.05.2021 09:32 9,3 C 8,3 C 5,6 C 88 % 998,7 hPa 0,0 l/m 0 min 2 min 56 W/m 35,4 km/h (5 Bft) 100,00 %
04.05.2021 09:34 9,3 C 8,3 C 5,6 C 88 % 998,6 hPa 0,0 l/m 0 min 2 min 99 W/m 29,0 km/h (5 Bft) 100,00 %
04.05.2021 09:36 9,3 C 8,3 C 5,6 C 88 % 998,5 hPa 0,0 l/m 0 min 2 min 109 W/m 48,3 km/h (6 Bft) 100,00 %
04.05.2021 09:38 9,3 C 8,3 C 6,1 C 88 % 998,5 hPa 0,0 l/m 0 min 2 min 115 W/m 32,2 km/h (5 Bft) 100,00 %
04.05.2021 09:40 9,3 C 8,3 C 6,1 C 89 % 998,4 hPa 0,0 l/m 0 min 2 min 158 W/m 45,1 km/h (6 Bft) 100,00 %
04.05.2021 09:42 9,3 C 8,9 C 6,1 C 89 % 998,5 hPa 0,0 l/m 0 min 2 min 146 W/m 29,0 km/h (5 Bft) 97,37 %
04.05.2021 09:44 9,3 C 8,9 C 6,1 C 89 % 998,5 hPa 0,0 l/m 0 min 2 min 134 W/m 35,4 km/h (5 Bft) 100,00 %
04.05.2021 09:46 9,3 C 8,9 C 6,1 C 89 % 998,4 hPa 0,0 l/m 0 min 2 min 129 W/m 45,1 km/h (6 Bft) 100,00 %
04.05.2021 09:48 9,3 C 8,9 C 6,1 C 89 % 998,4 hPa 0,0 l/m 0 min 2 min 85 W/m 38,6 km/h (5 Bft) 98,18 %
04.05.2021 09:50 9,4 C 8,9 C 6,1 C 89 % 998,4 hPa 0,0 l/m 0 min 2 min 74 W/m 51,5 km/h (7 Bft) 97,87 %
04.05.2021 09:52 9,4 C 8,9 C 6,1 C 88 % 998,4 hPa 0,0 l/m 0 min 2 min 110 W/m 45,1 km/h (6 Bft) 97,37 %
04.05.2021 09:54 9,4 C 8,3 C 6,1 C 89 % 998,4 hPa 0,0 l/m 0 min 2 min 107 W/m 48,3 km/h (6 Bft) 97,87 %
04.05.2021 09:56 9,4 C 8,3 C 6,1 C 89 % 998,4 hPa 0,0 l/m 0 min 2 min 97 W/m 35,4 km/h (5 Bft) 97,92 %
04.05.2021 09:58 9,3 C 8,3 C 6,1 C 89 % 998,4 hPa 0,0 l/m 0 min 2 min 49 W/m 29,0 km/h (5 Bft) 95,83 %
04.05.2021 10:00 9,3 C 8,3 C 6,1 C 89 % 998,5 hPa 0,0 l/m 0 min 2 min 56 W/m 29,0 km/h (5 Bft) 95,74 %
04.05.2021 10:02 9,3 C 8,3 C 6,1 C 89 % 998,3 hPa 0,0 l/m 0 min 2 min 90 W/m 35,4 km/h (5 Bft) 96,00 %
04.05.2021 10:04 9,3 C 8,9 C 6,1 C 89 % 998,4 hPa 0,0 l/m 0 min 2 min 94 W/m 29,0 km/h (5 Bft) 95,74 %
04.05.2021 10:06 9,3 C 8,9 C 6,1 C 89 % 998,4 hPa 0,0 l/m 0 min 2 min 63 W/m 35,4 km/h (5 Bft) 97,87 %
04.05.2021 10:08 9,4 C 8,9 C 6,1 C 89 % 998,4 hPa 0,0 l/m 0 min 2 min 64 W/m 38,6 km/h (5 Bft) 95,83 %
04.05.2021 10:10 9,4 C 8,9 C 6,1 C 89 % 998,3 hPa 0,0 l/m 0 min 2 min 111 W/m 29,0 km/h (5 Bft) 100,00 %
04.05.2021 10:12 9,4 C 8,9 C 6,1 C 89 % 998,2 hPa 0,0 l/m 0 min 2 min 161 W/m 41,8 km/h (6 Bft) 95,65 %
04.05.2021 10:14 9,4 C 9,4 C 6,7 C 89 % 998,2 hPa 0,0 l/m 0 min 2 min 192 W/m 41,8 km/h (6 Bft) 98,15 %
04.05.2021 10:16 9,5 C 9,4 C 6,7 C 89 % 998,3 hPa 0,0 l/m 0 min 2 min 281 W/m 35,4 km/h (5 Bft) 98,00 %
04.05.2021 10:18 9,6 C 9,4 C 6,7 C 89 % 998,1 hPa 0,0 l/m 0 min 0 min 236 W/m 51,5 km/h (7 Bft) 97,96 %
04.05.2021 10:20 9,7 C 10,0 C 7,3 C 89 % 998,1 hPa 0,0 l/m 0 min 0 min 263 W/m 48,3 km/h (6 Bft) 97,83 %
04.05.2021 10:22 9,8 C 10,0 C 7,3 C 88 % 998,1 hPa 0,0 l/m 0 min 0 min 204 W/m 32,2 km/h (5 Bft) 95,74 %
04.05.2021 10:24 9,9 C 10,0 C 7,3 C 89 % 998,1 hPa 0,0 l/m 0 min 0 min 283 W/m 48,3 km/h (6 Bft) 97,14 %
04.05.2021 10:26 10,1 C 10,6 C 7,3 C 88 % 998,1 hPa 0,0 l/m 0 min 2 min 255 W/m 45,1 km/h (6 Bft) 97,87 %
04.05.2021 10:28 10,2 C 10,6 C 8,4 C 88 % 997,9 hPa 0,0 l/m 2 min 2 min 330 W/m 35,4 km/h (5 Bft) 97,87 %
04.05.2021 10:30 10,4 C 11,1 C 8,4 C 88 % 997,9 hPa 0,0 l/m 2 min 2 min 555 W/m 35,4 km/h (5 Bft) 96,30 %
04.05.2021 10:32 10,5 C 11,1 C 7,8 C 87 % 997,9 hPa 0,0 l/m 2 min 0 min 324 W/m 41,8 km/h (6 Bft) 97,96 %
04.05.2021 10:34 10,6 C 11,1 C 7,8 C 86 % 998,1 hPa 0,0 l/m 0 min 0 min 295 W/m 48,3 km/h (6 Bft) 97,87 %
04.05.2021 10:36 10,8 C 10,6 C 7,8 C 86 % 998,0 hPa 0,0 l/m 0 min 0 min 247 W/m 41,8 km/h (6 Bft) 100,00 %
04.05.2021 10:38 10,8 C 10,6 C 7,8 C 86 % 998,0 hPa 0,0 l/m 0 min 2 min 227 W/m 54,7 km/h (7 Bft) 97,87 %
04.05.2021 10:40 10,8 C 10,0 C 7,3 C 85 % 998,0 hPa 0,0 l/m 0 min 2 min 131 W/m 38,6 km/h (5 Bft) 100,00 %
04.05.2021 10:42 10,7 C 10,0 C 7,3 C 85 % 998,1 hPa 0,0 l/m 0 min 2 min 79 W/m 29,0 km/h (5 Bft) 97,87 %
04.05.2021 10:44 10,6 C 10,0 C 7,3 C 86 % 998,0 hPa 0,0 l/m 0 min 2 min 89 W/m 35,4 km/h (5 Bft) 97,14 %
04.05.2021 10:46 10,6 C 10,0 C 7,3 C 86 % 998,0 hPa 0,0 l/m 0 min 2 min 94 W/m 32,2 km/h (5 Bft) 95,74 %
04.05.2021 10:48 10,5 C 10,0 C 7,3 C 86 % 998,0 hPa 0,0 l/m 0 min 2 min 113 W/m 29,0 km/h (5 Bft) 97,83 %
04.05.2021 10:50 10,5 C 9,4 C 7,3 C 86 % 998,1 hPa 0,0 l/m 0 min 2 min 92 W/m 35,4 km/h (5 Bft) 97,87 %
04.05.2021 10:52 10,4 C 9,4 C 7,3 C 86 % 998,1 hPa 0,0 l/m 0 min 2 min 78 W/m 29,0 km/h (5 Bft) 98,15 %
04.05.2021 10:54 10,3 C 9,4 C 6,7 C 87 % 998,1 hPa 0,2 l/m 0 min 2 min 89 W/m 41,8 km/h (6 Bft) 95,74 %
04.05.2021 10:56 10,3 C 9,4 C 6,7 C 87 % 998,1 hPa 0,0 l/m 0 min 2 min 89 W/m 38,6 km/h (5 Bft) 95,92 %
04.05.2021 10:58 10,2 C 9,4 C 6,7 C 87 % 998,2 hPa 0,2 l/m 0 min 2 min 85 W/m 38,6 km/h (5 Bft) 95,74 %
04.05.2021 11:00 10,1 C 8,9 C 6,7 C 88 % 998,2 hPa 0,0 l/m 0 min 2 min 99 W/m 32,2 km/h (5 Bft) 93,62 %
04.05.2021 11:02 10,1 C 8,9 C 6,7 C 88 % 998,2 hPa 0,0 l/m 0 min 2 min 90 W/m 38,6 km/h (5 Bft) 94,00 %
04.05.2021 11:04 10,0 C 8,3 C 6,7 C 89 % 998,3 hPa 0,0 l/m 0 min 2 min 75 W/m 35,4 km/h (5 Bft) 95,24 %
04.05.2021 11:06 9,9 C 8,9 C 6,7 C 89 % 998,2 hPa 0,0 l/m 0 min 2 min 109 W/m 29,0 km/h (5 Bft) 97,67 %
04.05.2021 11:08 9,9 C 8,9 C 6,7 C 90 % 998,2 hPa 0,0 l/m 0 min 2 min 96 W/m 29,0 km/h (5 Bft) 94,00 %
04.05.2021 11:10 9,9 C 8,9 C 6,7 C 90 % 998,3 hPa 0,0 l/m 0 min 2 min 68 W/m 22,5 km/h (4 Bft) 95,74 %
04.05.2021 11:12 9,9 C 8,9 C 6,7 C 90 % 998,3 hPa 0,2 l/m 0 min 2 min 77 W/m 22,5 km/h (4 Bft) 96,23 %
04.05.2021 11:14 9,8 C 8,9 C 6,7 C 91 % 998,4 hPa 0,2 l/m 0 min 2 min 91 W/m 32,2 km/h (5 Bft) 94,74 %
04.05.2021 11:16 9,8 C 8,9 C 6,7 C 91 % 998,1 hPa 0,0 l/m 0 min 2 min 134 W/m 38,6 km/h (5 Bft) 93,62 %
04.05.2021 11:18 9,6 C 8,9 C 6,7 C 91 % 998,1 hPa 0,0 l/m 0 min 2 min 159 W/m 54,7 km/h (7 Bft) 96,00 %
04.05.2021 11:20 9,6 C 8,9 C 6,7 C 91 % 998,0 hPa 0,0 l/m 0 min 2 min 167 W/m 38,6 km/h (5 Bft) 95,65 %
04.05.2021 11:22 9,5 C 8,9 C 6,7 C 90 % 997,9 hPa 0,0 l/m 0 min 2 min 181 W/m 38,6 km/h (5 Bft) 95,74 %
04.05.2021 11:24 9,5 C 9,4 C 7,8 C 90 % 997,9 hPa 0,0 l/m 0 min 0 min 274 W/m 29,0 km/h (5 Bft) 95,74 %
04.05.2021 11:26 9,7 C 10,6 C 8,9 C 91 % 997,9 hPa 0,0 l/m 2 min 0 min 810 W/m 35,4 km/h (5 Bft) 95,45 %
04.05.2021 11:28 9,9 C 10,6 C 8,9 C 91 % 997,8 hPa 0,0 l/m 2 min 2 min 860 W/m 57,9 km/h (7 Bft) 93,62 %
04.05.2021 11:30 10,1 C 11,1 C 9,5 C 91 % 997,8 hPa 0,0 l/m 2 min 2 min 436 W/m 35,4 km/h (5 Bft) 95,92 %
04.05.2021 11:32 10,3 C 11,1 C 9,5 C 91 % 997,7 hPa 0,0 l/m 2 min 2 min 531 W/m 74,0 km/h (8 Bft) 95,74 %
04.05.2021 11:34 10,5 C 11,1 C 9,5 C 90 % 997,9 hPa 0,0 l/m 2 min 2 min 779 W/m 45,1 km/h (6 Bft) 97,87 %
04.05.2021 11:36 10,8 C 11,7 C 9,5 C 90 % 997,8 hPa 0,0 l/m 2 min 0 min 779 W/m 41,8 km/h (6 Bft) 97,73 %
04.05.2021 11:38 11,0 C 11,7 C 9,5 C 89 % 997,9 hPa 0,0 l/m 2 min 0 min 781 W/m 57,9 km/h (7 Bft) 95,74 %
04.05.2021 11:40 11,2 C 11,7 C 8,9 C 88 % 998,0 hPa 0,0 l/m 0 min 0 min 305 W/m 35,4 km/h (5 Bft) 97,87 %
04.05.2021 11:42 11,3 C 11,1 C 8,9 C 87 % 998,0 hPa 0,0 l/m 0 min 0 min 229 W/m 45,1 km/h (6 Bft) 97,87 %
04.05.2021 11:44 11,3 C 11,1 C 8,4 C 86 % 998,0 hPa 0,0 l/m 0 min 0 min 254 W/m 41,8 km/h (6 Bft) 97,96 %
04.05.2021 11:46 11,3 C 11,1 C 8,4 C 86 % 997,8 hPa 0,0 l/m 0 min 0 min 203 W/m 45,1 km/h (6 Bft) 98,11 %
04.05.2021 11:48 11,4 C 11,1 C 8,4 C 86 % 997,8 hPa 0,0 l/m 0 min 0 min 221 W/m 35,4 km/h (5 Bft) 95,74 %
04.05.2021 11:50 11,4 C 11,1 C 8,4 C 84 % 997,6 hPa 0,0 l/m 0 min 0 min 260 W/m 48,3 km/h (6 Bft) 97,87 %
04.05.2021 11:52 11,5 C 11,1 C 8,4 C 83 % 997,8 hPa 0,0 l/m 0 min 0 min 366 W/m 61,2 km/h (7 Bft) 100,00 %
04.05.2021 11:54 11,6 C 11,7 C 8,4 C 83 % 997,6 hPa 0,0 l/m 2 min 0 min 385 W/m 32,2 km/h (5 Bft) 97,96 %
04.05.2021 11:56 11,7 C 11,7 C 8,4 C 83 % 997,7 hPa 0,0 l/m 0 min 0 min 254 W/m 41,8 km/h (6 Bft) 97,87 %
04.05.2021 11:58 11,8 C 11,7 C 8,9 C 83 % 997,7 hPa 0,0 l/m 0 min 0 min 220 W/m 19,3 km/h (3 Bft) 98,00 %
04.05.2021 12:00 11,8 C 11,7 C 8,9 C 82 % 997,7 hPa 0,0 l/m 2 min 0 min 378 W/m 38,6 km/h (5 Bft) 97,14 %
04.05.2021 12:02 11,9 C 12,2 C 8,9 C 81 % 997,6 hPa 0,0 l/m 0 min 0 min 313 W/m 38,6 km/h (5 Bft) 96,43 %
04.05.2021 12:04 12,0 C 12,2 C 8,9 C 79 % 997,7 hPa 0,0 l/m 0 min 0 min 325 W/m 54,7 km/h (7 Bft) 97,73 %
04.05.2021 12:08 12,2 C 12,8 C 10,0 C 78 % 997,6 hPa 0,0 l/m 0 min 0 min 265 W/m 48,3 km/h (6 Bft) 98,99 %
04.05.2021 12:10 12,4 C 13,3 C 10,6 C 79 % 997,7 hPa 0,0 l/m 0 min 0 min 262 W/m 54,7 km/h (7 Bft) 100,00 %
04.05.2021 12:12 12,5 C 13,3 C 10,6 C 78 % 997,6 hPa 0,0 l/m 0 min 0 min 351 W/m 48,3 km/h (6 Bft) 97,37 %
04.05.2021 12:14 12,8 C 14,4 C 12,3 C 78 % 997,6 hPa 0,0 l/m 2 min 0 min 1008 W/m 35,4 km/h (5 Bft) 100,00 %
04.05.2021 12:16 13,0 C 14,4 C 12,3 C 76 % 997,5 hPa 0,0 l/m 2 min 0 min 1053 W/m 57,9 km/h (7 Bft) 100,00 %
04.05.2021 12:18 13,1 C 14,4 C 11,7 C 75 % 997,5 hPa 0,0 l/m 2 min 0 min 1054 W/m 48,3 km/h (6 Bft) 100,00 %
04.05.2021 12:20 13,3 C 14,4 C 11,1 C 75 % 997,7 hPa 0,0 l/m 2 min 0 min 1046 W/m 48,3 km/h (6 Bft) 100,00 %
04.05.2021 12:22 13,1 C 13,3 C 10,0 C 74 % 997,5 hPa 0,0 l/m 2 min 0 min 906 W/m 32,2 km/h (5 Bft) 100,00 %
04.05.2021 12:24 13,0 C 12,8 C 9,5 C 76 % 997,5 hPa 0,0 l/m 0 min 0 min 159 W/m 25,7 km/h (4 Bft) 100,00 %
04.05.2021 12:26 12,9 C 12,2 C 8,9 C 75 % 997,6 hPa 0,0 l/m 0 min 2 min 97 W/m 64,4 km/h (8 Bft) 100,00 %
04.05.2021 12:28 12,8 C 12,2 C 8,4 C 76 % 997,9 hPa 0,0 l/m 0 min 0 min 74 W/m 35,4 km/h (5 Bft) 95,74 %
04.05.2021 12:30 12,5 C 11,1 C 8,4 C 77 % 997,8 hPa 0,0 l/m 0 min 2 min 76 W/m 35,4 km/h (5 Bft) 97,83 %
04.05.2021 12:32 12,0 C 10,6 C 7,8 C 80 % 997,8 hPa 0,2 l/m 0 min 2 min 119 W/m 25,7 km/h (4 Bft) 100,00 %
04.05.2021 12:34 11,5 C 10,0 C 7,8 C 80 % 998,0 hPa 0,0 l/m 0 min 2 min 173 W/m 38,6 km/h (5 Bft) 97,87 %
04.05.2021 12:36 11,4 C 10,6 C 8,4 C 81 % 997,8 hPa 0,0 l/m 0 min 2 min 316 W/m 35,4 km/h (5 Bft) 97,87 %
04.05.2021 12:38 11,4 C 11,1 C 9,5 C 81 % 998,0 hPa 0,0 l/m 0 min 0 min 390 W/m 38,6 km/h (5 Bft) 97,37 %
04.05.2021 12:40 11,6 C 11,7 C 8,9 C 81 % 998,1 hPa 0,0 l/m 0 min 0 min 383 W/m 45,1 km/h (6 Bft) 97,87 %
04.05.2021 12:42 11,6 C 11,7 C 8,4 C 79 % 998,1 hPa 0,0 l/m 0 min 0 min 319 W/m 32,2 km/h (5 Bft) 97,83 %
04.05.2021 12:44 11,8 C 11,7 C 8,9 C 79 % 998,1 hPa 0,0 l/m 0 min 0 min 374 W/m 22,5 km/h (4 Bft) 97,87 %
04.05.2021 12:46 12,0 C 12,2 C 9,5 C 78 % 998,0 hPa 0,0 l/m 0 min 0 min 354 W/m 35,4 km/h (5 Bft) 96,43 %
04.05.2021 12:48 12,0 C 11,7 C 9,5 C 77 % 998,1 hPa 0,0 l/m 0 min 0 min 309 W/m 29,0 km/h (5 Bft) 97,37 %
04.05.2021 12:50 12,1 C 12,2 C 10,0 C 77 % 998,0 hPa 0,0 l/m 0 min 0 min 338 W/m 35,4 km/h (5 Bft) 97,87 %
04.05.2021 12:52 12,4 C 12,2 C 11,1 C 77 % 998,1 hPa 0,0 l/m 0 min 0 min 373 W/m 29,0 km/h (5 Bft) 97,87 %
04.05.2021 12:54 12,5 C 12,8 C 12,3 C 74 % 998,1 hPa 0,0 l/m 2 min 0 min 502 W/m 38,6 km/h (5 Bft) 98,18 %
04.05.2021 12:56 12,6 C 12,8 C 12,3 C 73 % 998,0 hPa 0,0 l/m 2 min 0 min 588 W/m 45,1 km/h (6 Bft) 97,87 %
04.05.2021 12:58 12,9 C 13,3 C 14,5 C 75 % 998,0 hPa 0,0 l/m 2 min 0 min 824 W/m 22,5 km/h (4 Bft) 97,37 %
04.05.2021 13:00 13,1 C 13,9 C 15,0 C 74 % 998,2 hPa 0,0 l/m 2 min 0 min 1023 W/m 35,4 km/h (5 Bft) 98,00 %
04.05.2021 13:02 13,4 C 14,4 C 16,1 C 73 % 998,2 hPa 0,0 l/m 2 min 0 min 1023 W/m 32,2 km/h (5 Bft) 96,00 %
04.05.2021 13:04 13,5 C 13,9 C 13,9 C 72 % 998,2 hPa 0,0 l/m 2 min 0 min 588 W/m 38,6 km/h (5 Bft) 97,37 %
04.05.2021 13:06 13,4 C 13,3 C 13,4 C 70 % 998,3 hPa 0,0 l/m 2 min 0 min 425 W/m 38,6 km/h (5 Bft) 98,08 %
04.05.2021 13:08 13,1 C 13,3 C 14,5 C 70 % 998,3 hPa 0,0 l/m 2 min 0 min 777 W/m 45,1 km/h (6 Bft) 98,00 %
04.05.2021 13:10 13,0 C 13,3 C 13,9 C 68 % 998,4 hPa 0,0 l/m 2 min 0 min 1009 W/m 61,2 km/h (7 Bft) 97,87 %
04.05.2021 13:12 13,1 C 13,9 C 15,6 C 69 % 998,1 hPa 0,0 l/m 2 min 0 min 1009 W/m 29,0 km/h (5 Bft) 97,87 %
04.05.2021 13:14 13,3 C 14,4 C 16,1 C 69 % 998,2 hPa 0,0 l/m 2 min 0 min 1009 W/m 29,0 km/h (5 Bft) 97,37 %
04.05.2021 13:16 13,6 C 15,0 C 17,8 C 70 % 998,2 hPa 0,0 l/m 2 min 0 min 1036 W/m 35,4 km/h (5 Bft) 95,74 %
04.05.2021 13:18 13,8 C 15,6 C 18,4 C 69 % 998,5 hPa 0,0 l/m 2 min 0 min 1077 W/m 35,4 km/h (5 Bft) 97,83 %
04.05.2021 13:20 13,9 C 15,6 C 17,8 C 68 % 998,4 hPa 0,0 l/m 2 min 0 min 1134 W/m 38,6 km/h (5 Bft) 97,87 %
04.05.2021 13:22 13,8 C 15,0 C 15,6 C 66 % 998,3 hPa 0,0 l/m 2 min 0 min 648 W/m 38,6 km/h (5 Bft) 100,00 %
04.05.2021 13:24 13,8 C 15,0 C 15,0 C 67 % 998,4 hPa 0,0 l/m 2 min 0 min 491 W/m 32,2 km/h (5 Bft) 100,00 %
04.05.2021 13:26 13,7 C 14,4 C 13,4 C 68 % 998,6 hPa 0,0 l/m 2 min 0 min 476 W/m 54,7 km/h (7 Bft) 100,00 %
04.05.2021 13:28 13,5 C 13,9 C 12,3 C 65 % 998,4 hPa 0,0 l/m 0 min 0 min 381 W/m 38,6 km/h (5 Bft) 100,00 %
04.05.2021 13:30 13,4 C 13,9 C 12,3 C 65 % 998,5 hPa 0,0 l/m 2 min 0 min 455 W/m 35,4 km/h (5 Bft) 100,00 %
04.05.2021 13:32 13,4 C 13,9 C 11,7 C 65 % 998,6 hPa 0,0 l/m 0 min 0 min 327 W/m 38,6 km/h (5 Bft) 100,00 %
04.05.2021 13:34 13,3 C 13,3 C 11,7 C 66 % 998,5 hPa 0,0 l/m 0 min 0 min 236 W/m 38,6 km/h (5 Bft) 100,00 %
04.05.2021 13:36 13,1 C 12,8 C 11,1 C 65 % 998,6 hPa 0,0 l/m 0 min 0 min 225 W/m 41,8 km/h (6 Bft) 100,00 %
04.05.2021 13:38 13,0 C 12,8 C 10,6 C 67 % 998,6 hPa 0,0 l/m 0 min 0 min 204 W/m 38,6 km/h (5 Bft) 100,00 %
04.05.2021 13:40 12,9 C 12,8 C 10,6 C 66 % 998,6 hPa 0,0 l/m 0 min 0 min 136 W/m 35,4 km/h (5 Bft) 100,00 %
04.05.2021 13:42 12,8 C 12,8 C 11,1 C 66 % 998,6 hPa 0,0 l/m 0 min 0 min 187 W/m 29,0 km/h (5 Bft) 98,21 %
04.05.2021 13:44 12,9 C 12,8 C 11,1 C 67 % 998,7 hPa 0,0 l/m 0 min 0 min 188 W/m 22,5 km/h (4 Bft) 100,00 %
04.05.2021 13:46 12,9 C 12,8 C 10,6 C 67 % 998,7 hPa 0,0 l/m 0 min 0 min 164 W/m 35,4 km/h (5 Bft) 100,00 %
04.05.2021 13:48 12,9 C 12,8 C 10,6 C 67 % 998,8 hPa 0,0 l/m 0 min 0 min 134 W/m 16,1 km/h (3 Bft) 100,00 %
04.05.2021 13:50 12,8 C 12,2 C 10,0 C 66 % 998,9 hPa 0,0 l/m 0 min 0 min 165 W/m 29,0 km/h (5 Bft) 100,00 %
04.05.2021 13:52 12,6 C 12,2 C 10,0 C 66 % 998,8 hPa 0,0 l/m 0 min 0 min 155 W/m 45,1 km/h (6 Bft) 98,18 %
04.05.2021 13:54 12,5 C 12,2 C 10,0 C 66 % 998,9 hPa 0,0 l/m 0 min 0 min 154 W/m 35,4 km/h (5 Bft) 100,00 %
04.05.2021 13:56 12,4 C 12,2 C 9,5 C 66 % 999,1 hPa 0,0 l/m 0 min 0 min 116 W/m 35,4 km/h (5 Bft) 97,87 %
04.05.2021 13:58 12,4 C 12,2 C 9,5 C 67 % 999,1 hPa 0,0 l/m 0 min 0 min 134 W/m 29,0 km/h (5 Bft) 100,00 %
04.05.2021 14:00 12,3 C 11,7 C 8,9 C 70 % 999,0 hPa 0,0 l/m 0 min 2 min 230 W/m 64,4 km/h (8 Bft) 100,00 %
04.05.2021 14:02 12,1 C 11,7 C 8,9 C 72 % 999,1 hPa 0,0 l/m 0 min 2 min 190 W/m 29,0 km/h (5 Bft) 98,18 %
04.05.2021 14:04 12,0 C 12,2 C 9,5 C 73 % 999,2 hPa 0,0 l/m 0 min 2 min 204 W/m 38,6 km/h (5 Bft) 100,00 %
04.05.2021 14:06 12,0 C 12,2 C 9,5 C 73 % 999,0 hPa 0,0 l/m 0 min 0 min 208 W/m 32,2 km/h (5 Bft) 100,00 %
04.05.2021 14:08 12,1 C 12,2 C 10,0 C 73 % 999,2 hPa 0,0 l/m 0 min 0 min 293 W/m 25,7 km/h (4 Bft) 100,00 %
04.05.2021 14:10 12,1 C 12,2 C 9,5 C 72 % 999,3 hPa 0,0 l/m 0 min 0 min 225 W/m 41,8 km/h (6 Bft) 100,00 %
04.05.2021 14:12 12,1 C 12,2 C 9,5 C 71 % 999,2 hPa 0,0 l/m 0 min 0 min 275 W/m 45,1 km/h (6 Bft) 98,00 %
04.05.2021 14:14 12,1 C 12,2 C 9,5 C 71 % 999,3 hPa 0,0 l/m 0 min 2 min 331 W/m 41,8 km/h (6 Bft) 97,92 %
04.05.2021 14:16 11,9 C 12,2 C 9,5 C 74 % 999,3 hPa 0,0 l/m 0 min 2 min 375 W/m 45,1 km/h (6 Bft) 97,14 %
04.05.2021 14:18 12,0 C 12,8 C 9,5 C 76 % 999,3 hPa 0,0 l/m 0 min 2 min 372 W/m 22,5 km/h (4 Bft) 95,74 %
04.05.2021 14:20 12,1 C 12,8 C 9,5 C 75 % 999,3 hPa 0,0 l/m 2 min 2 min 431 W/m 29,0 km/h (5 Bft) 97,87 %
04.05.2021 14:22 12,3 C 13,3 C 10,0 C 74 % 999,2 hPa 0,0 l/m 2 min 0 min 470 W/m 25,7 km/h (4 Bft) 95,74 %
04.05.2021 14:24 12,4 C 13,9 C 10,6 C 74 % 999,2 hPa 0,0 l/m 2 min 0 min 459 W/m 25,7 km/h (4 Bft) 95,74 %
04.05.2021 14:26 12,7 C 14,4 C 10,6 C 72 % 999,3 hPa 0,0 l/m 2 min 0 min 459 W/m 32,2 km/h (5 Bft) 97,87 %
04.05.2021 14:28 12,9 C 13,9 C 10,6 C 69 % 999,3 hPa 0,0 l/m 2 min 0 min 397 W/m 25,7 km/h (4 Bft) 95,65 %
04.05.2021 14:30 12,9 C 13,3 C 10,6 C 68 % 999,2 hPa 0,0 l/m 0 min 0 min 264 W/m 32,2 km/h (5 Bft) 98,18 %
04.05.2021 14:32 12,9 C 13,9 C 10,6 C 69 % 999,3 hPa 0,0 l/m 0 min 0 min 295 W/m 29,0 km/h (5 Bft) 98,00 %
04.05.2021 14:34 12,9 C 13,3 C 10,6 C 67 % 999,2 hPa 0,0 l/m 0 min 0 min 369 W/m 25,7 km/h (4 Bft) 97,87 %
04.05.2021 14:36 13,0 C 13,3 C 10,6 C 65 % 999,2 hPa 0,0 l/m 0 min 0 min 313 W/m 32,2 km/h (5 Bft) 97,87 %
04.05.2021 14:38 12,9 C 13,3 C 10,6 C 64 % 999,2 hPa 0,0 l/m 0 min 0 min 274 W/m 35,4 km/h (5 Bft) 97,22 %
04.05.2021 14:40 12,9 C 13,3 C 10,6 C 63 % 999,3 hPa 0,0 l/m 0 min 0 min 294 W/m 25,7 km/h (4 Bft) 97,83 %
04.05.2021 14:42 12,9 C 12,8 C 10,6 C 63 % 999,4 hPa 0,0 l/m 0 min 0 min 236 W/m 38,6 km/h (5 Bft) 96,36 %
04.05.2021 14:44 12,9 C 12,8 C 10,6 C 63 % 999,3 hPa 0,0 l/m 0 min 0 min 213 W/m 29,0 km/h (5 Bft) 94,00 %
04.05.2021 14:46 12,9 C 12,8 C 10,6 C 63 % 999,3 hPa 0,0 l/m 0 min 0 min 185 W/m 35,4 km/h (5 Bft) 95,74 %
04.05.2021 14:48 12,9 C 12,8 C 10,0 C 62 % 999,3 hPa 0,0 l/m 0 min 0 min 160 W/m 38,6 km/h (5 Bft) 95,74 %
04.05.2021 14:50 12,8 C 12,2 C 10,0 C 62 % 999,3 hPa 0,0 l/m 0 min 0 min 164 W/m 32,2 km/h (5 Bft) 95,74 %
04.05.2021 14:52 12,8 C 12,8 C 10,0 C 62 % 999,4 hPa 0,0 l/m 0 min 0 min 209 W/m 41,8 km/h (6 Bft) 94,29 %
04.05.2021 14:54 12,8 C 12,8 C 10,0 C 62 % 999,4 hPa 0,0 l/m 0 min 0 min 267 W/m 48,3 km/h (6 Bft) 95,74 %
04.05.2021 14:56 12,8 C 12,8 C 10,0 C 61 % 999,3 hPa 0,0 l/m 0 min 0 min 234 W/m 35,4 km/h (5 Bft) 94,55 %
04.05.2021 14:58 12,8 C 13,3 C 10,0 C 62 % 999,3 hPa 0,0 l/m 0 min 0 min 247 W/m 35,4 km/h (5 Bft) 96,00 %
04.05.2021 15:00 13,0 C 13,3 C 10,6 C 62 % 999,4 hPa 0,0 l/m 0 min 0 min 274 W/m 35,4 km/h (5 Bft) 97,83 %
04.05.2021 15:02 13,0 C 13,3 C 10,6 C 61 % 999,4 hPa 0,0 l/m 2 min 0 min 443 W/m 29,0 km/h (5 Bft) 92,86 %
04.05.2021 15:04 13,0 C 12,8 C 10,6 C 61 % 999,4 hPa 0,0 l/m 0 min 0 min 266 W/m 38,6 km/h (5 Bft) 94,55 %
04.05.2021 15:06 13,0 C 12,8 C 10,6 C 61 % 999,3 hPa 0,0 l/m 0 min 0 min 288 W/m 25,7 km/h (4 Bft) 92,11 %
04.05.2021 15:08 13,1 C 13,9 C 10,6 C 62 % 999,3 hPa 0,0 l/m 0 min 0 min 323 W/m 38,6 km/h (5 Bft) 93,75 %
04.05.2021 15:10 13,2 C 13,3 C 10,6 C 62 % 999,3 hPa 0,0 l/m 0 min 0 min 352 W/m 19,3 km/h (3 Bft) 95,74 %
04.05.2021 15:12 13,3 C 13,3 C 10,6 C 62 % 999,3 hPa 0,0 l/m 0 min 0 min 180 W/m 25,7 km/h (4 Bft) 91,49 %
04.05.2021 15:14 13,2 C 12,8 C 10,6 C 62 % 999,3 hPa 0,0 l/m 0 min 0 min 150 W/m 51,5 km/h (7 Bft) 95,65 %
04.05.2021 15:16 13,0 C 12,8 C 10,0 C 62 % 999,4 hPa 0,0 l/m 0 min 0 min 81 W/m 25,7 km/h (4 Bft) 94,55 %
04.05.2021 15:18 13,0 C 12,8 C 10,0 C 63 % 999,4 hPa 0,0 l/m 0 min 0 min 112 W/m 29,0 km/h (5 Bft) 78,72 %
04.05.2021 15:20 13,0 C 13,3 C 10,0 C 66 % 999,5 hPa 0,0 l/m 0 min 2 min 181 W/m 48,3 km/h (6 Bft) 67,57 %
04.05.2021 15:22 13,0 C 13,9 C 10,6 C 66 % 999,4 hPa 0,0 l/m 0 min 2 min 289 W/m 32,2 km/h (5 Bft) 93,75 %
04.05.2021 15:24 13,1 C 14,4 C 10,6 C 65 % 999,4 hPa 0,0 l/m 0 min 0 min 290 W/m 29,0 km/h (5 Bft) 95,65 %
04.05.2021 15:26 13,3 C 13,9 C 10,6 C 65 % 999,4 hPa 0,0 l/m 0 min 0 min 275 W/m 25,7 km/h (4 Bft) 93,62 %
04.05.2021 15:28 13,2 C 13,3 C 10,6 C 64 % 999,5 hPa 0,0 l/m 0 min 0 min 230 W/m 38,6 km/h (5 Bft) 96,36 %
04.05.2021 15:30 13,1 C 13,3 C 10,6 C 65 % 999,5 hPa 0,0 l/m 0 min 0 min 232 W/m 41,8 km/h (6 Bft) 94,74 %
04.05.2021 15:32 13,2 C 13,9 C 10,6 C 65 % 999,6 hPa 0,0 l/m 0 min 2 min 244 W/m 32,2 km/h (5 Bft) 95,83 %
04.05.2021 15:34 13,3 C 13,9 C 10,6 C 63 % 999,4 hPa 0,0 l/m 0 min 0 min 307 W/m 22,5 km/h (4 Bft) 95,74 %
04.05.2021 15:36 13,4 C 14,4 C 10,6 C 63 % 999,4 hPa 0,0 l/m 2 min 0 min 436 W/m 41,8 km/h (6 Bft) 95,74 %
04.05.2021 15:38 13,4 C 13,9 C 10,6 C 62 % 999,4 hPa 0,0 l/m 0 min 0 min 311 W/m 38,6 km/h (5 Bft) 97,83 %
04.05.2021 15:40 13,4 C 13,9 C 11,1 C 61 % 999,5 hPa 0,0 l/m 0 min 0 min 276 W/m 29,0 km/h (5 Bft) 95,74 %
04.05.2021 15:42 13,4 C 13,9 C 10,6 C 59 % 999,4 hPa 0,0 l/m 0 min 0 min 261 W/m 54,7 km/h (7 Bft) 95,74 %
04.05.2021 15:44 13,4 C 13,3 C 10,6 C 59 % 999,5 hPa 0,0 l/m 0 min 0 min 241 W/m 45,1 km/h (6 Bft) 97,87 %
04.05.2021 15:46 13,3 C 13,3 C 10,6 C 58 % 999,5 hPa 0,0 l/m 0 min 0 min 266 W/m 38,6 km/h (5 Bft) 95,74 %
04.05.2021 15:48 13,3 C 13,3 C 10,6 C 59 % 999,5 hPa 0,0 l/m 0 min 0 min 344 W/m 38,6 km/h (5 Bft) 97,83 %
04.05.2021 15:50 13,4 C 13,3 C 10,6 C 60 % 999,4 hPa 0,0 l/m 0 min 0 min 328 W/m 22,5 km/h (4 Bft) 97,87 %
04.05.2021 15:52 13,4 C 13,9 C 11,1 C 60 % 999,5 hPa 0,0 l/m 0 min 0 min 261 W/m 19,3 km/h (3 Bft) 96,36 %
04.05.2021 15:54 13,5 C 13,3 C 11,1 C 60 % 999,5 hPa 0,0 l/m 0 min 0 min 243 W/m 29,0 km/h (5 Bft) 97,37 %
04.05.2021 15:56 13,4 C 13,3 C 10,6 C 60 % 999,6 hPa 0,0 l/m 0 min 0 min 227 W/m 22,5 km/h (4 Bft) 97,87 %
04.05.2021 15:58 13,4 C 13,3 C 10,6 C 58 % 999,8 hPa 0,0 l/m 0 min 0 min 297 W/m 45,1 km/h (6 Bft) 100,00 %
04.05.2021 16:00 13,5 C 14,4 C 11,1 C 58 % 999,6 hPa 0,0 l/m 0 min 0 min 332 W/m 38,6 km/h (5 Bft) 100,00 %
04.05.2021 16:02 13,6 C 15,0 C 11,1 C 58 % 999,6 hPa 0,0 l/m 2 min 0 min 457 W/m 38,6 km/h (5 Bft) 100,00 %
04.05.2021 16:04 13,8 C 15,0 C 11,1 C 57 % 999,6 hPa 0,0 l/m 2 min 0 min 370 W/m 41,8 km/h (6 Bft) 100,00 %
04.05.2021 16:06 13,8 C 14,4 C 11,1 C 57 % 999,5 hPa 0,0 l/m 0 min 0 min 264 W/m 45,1 km/h (6 Bft) 97,87 %
04.05.2021 16:08 13,9 C 16,1 C 11,1 C 57 % 999,4 hPa 0,0 l/m 2 min 0 min 500 W/m 41,8 km/h (6 Bft) 100,00 %
04.05.2021 16:10 14,2 C 16,7 C 11,7 C 57 % 999,4 hPa 0,0 l/m 2 min 0 min 837 W/m 22,5 km/h (4 Bft) 100,00 %
04.05.2021 16:12 14,3 C 17,2 C 11,7 C 56 % 999,6 hPa 0,0 l/m 2 min 0 min 805 W/m 35,4 km/h (5 Bft) 100,00 %
04.05.2021 16:14 14,4 C 16,1 C 11,7 C 56 % 999,5 hPa 0,0 l/m 2 min 0 min 619 W/m 25,7 km/h (4 Bft) 95,74 %
04.05.2021 16:16 14,4 C 15,6 C 11,7 C 54 % 999,4 hPa 0,0 l/m 0 min 0 min 323 W/m 48,3 km/h (6 Bft) 100,00 %
04.05.2021 16:18 14,4 C 15,6 C 11,7 C 55 % 999,6 hPa 0,0 l/m 0 min 0 min 323 W/m 38,6 km/h (5 Bft) 100,00 %
04.05.2021 16:20 14,5 C 16,7 C 11,7 C 54 % 999,4 hPa 0,0 l/m 2 min 0 min 346 W/m 38,6 km/h (5 Bft) 100,00 %
04.05.2021 16:22 14,5 C 16,1 C 12,3 C 54 % 999,5 hPa 0,0 l/m 2 min 0 min 900 W/m 54,7 km/h (7 Bft) 100,00 %
04.05.2021 16:24 14,5 C 16,1 C 11,7 C 54 % 999,5 hPa 0,0 l/m 2 min 0 min 912 W/m 41,8 km/h (6 Bft) 97,83 %
04.05.2021 16:26 14,4 C 15,0 C 11,7 C 54 % 999,4 hPa 0,0 l/m 2 min 0 min 346 W/m 48,3 km/h (6 Bft) 100,00 %
04.05.2021 16:28 14,4 C 14,4 C 11,7 C 53 % 999,5 hPa 0,0 l/m 0 min 0 min 285 W/m 38,6 km/h (5 Bft) 100,00 %
04.05.2021 16:30 14,3 C 15,0 C 11,7 C 53 % 999,3 hPa 0,0 l/m 0 min 0 min 250 W/m 38,6 km/h (5 Bft) 100,00 %
04.05.2021 16:32 14,2 C 14,4 C 11,7 C 53 % 999,5 hPa 0,0 l/m 0 min 0 min 232 W/m 45,1 km/h (6 Bft) 100,00 %
04.05.2021 16:34 14,2 C 13,9 C 11,1 C 53 % 999,5 hPa 0,0 l/m 0 min 0 min 195 W/m 41,8 km/h (6 Bft) 100,00 %
04.05.2021 16:36 14,1 C 13,9 C 11,1 C 54 % 999,5 hPa 0,0 l/m 0 min 0 min 184 W/m 38,6 km/h (5 Bft) 100,00 %
04.05.2021 16:38 14,0 C 13,3 C 11,1 C 53 % 999,6 hPa 0,0 l/m 0 min 0 min 168 W/m 41,8 km/h (6 Bft) 100,00 %
04.05.2021 16:40 13,9 C 13,3 C 10,6 C 54 % 999,5 hPa 0,0 l/m 0 min 0 min 114 W/m 35,4 km/h (5 Bft) 97,87 %
04.05.2021 16:42 13,8 C 13,3 C 10,6 C 54 % 999,6 hPa 0,0 l/m 0 min 0 min 93 W/m 29,0 km/h (5 Bft) 100,00 %
04.05.2021 16:44 13,7 C 13,3 C 10,6 C 55 % 999,7 hPa 0,0 l/m 0 min 0 min 96 W/m 38,6 km/h (5 Bft) 100,00 %
04.05.2021 16:46 13,6 C 13,3 C 10,6 C 55 % 999,7 hPa 0,0 l/m 0 min 0 min 103 W/m 25,7 km/h (4 Bft) 100,00 %
04.05.2021 16:48 13,6 C 12,8 C 10,6 C 55 % 999,7 hPa 0,0 l/m 0 min 0 min 79 W/m 25,7 km/h (4 Bft) 100,00 %
04.05.2021 16:50 13,5 C 12,8 C 10,6 C 55 % 999,6 hPa 0,0 l/m 0 min 0 min 68 W/m 29,0 km/h (5 Bft) 100,00 %
04.05.2021 16:52 13,4 C 12,8 C 10,6 C 56 % 999,7 hPa 0,0 l/m 0 min 0 min 43 W/m 29,0 km/h (5 Bft) 100,00 %
04.05.2021 16:54 13,4 C 12,8 C 10,0 C 56 % 999,7 hPa 0,0 l/m 0 min 0 min 32 W/m 29,0 km/h (5 Bft) 100,00 %
04.05.2021 16:56 13,4 C 12,8 C 10,0 C 57 % 999,8 hPa 0,0 l/m 0 min 0 min 29 W/m 19,3 km/h (3 Bft) 100,00 %
04.05.2021 16:58 13,3 C 12,8 C 10,0 C 56 % 999,8 hPa 0,0 l/m 0 min 0 min 26 W/m 41,8 km/h (6 Bft) 100,00 %
04.05.2021 17:00 13,2 C 12,2 C 9,5 C 60 % 1000,1 hPa 0,0 l/m 0 min 0 min 31 W/m 35,4 km/h (5 Bft) 100,00 %
04.05.2021 17:02 12,8 C 11,7 C 8,9 C 64 % 1000,1 hPa 0,0 l/m 0 min 0 min 54 W/m 41,8 km/h (6 Bft) 100,00 %
04.05.2021 17:04 12,2 C 10,6 C 8,4 C 68 % 1000,1 hPa 0,0 l/m 0 min 2 min 67 W/m 25,7 km/h (4 Bft) 100,00 %
04.05.2021 17:06 11,8 C 10,6 C 8,4 C 71 % 1000,1 hPa 0,0 l/m 0 min 2 min 107 W/m 22,5 km/h (4 Bft) 100,00 %
04.05.2021 17:08 11,5 C 10,6 C 8,4 C 72 % 1000,1 hPa 0,0 l/m 0 min 2 min 140 W/m 19,3 km/h (3 Bft) 100,00 %
04.05.2021 17:10 11,3 C 10,6 C 8,4 C 73 % 1000,1 hPa 0,0 l/m 0 min 0 min 162 W/m 19,3 km/h (3 Bft) 100,00 %
04.05.2021 17:12 11,3 C 11,1 C 8,4 C 74 % 1000,1 hPa 0,0 l/m 0 min 0 min 198 W/m 22,5 km/h (4 Bft) 100,00 %
04.05.2021 17:14 11,3 C 11,1 C 8,4 C 73 % 1000,1 hPa 0,0 l/m 0 min 0 min 174 W/m 22,5 km/h (4 Bft) 95,74 %
04.05.2021 17:16 11,3 C 11,1 C 8,4 C 72 % 1000,2 hPa 0,0 l/m 0 min 0 min 123 W/m 25,7 km/h (4 Bft) 95,74 %
04.05.2021 17:18 11,4 C 11,1 C 8,4 C 72 % 1000,3 hPa 0,0 l/m 0 min 0 min 95 W/m 29,0 km/h (5 Bft) 100,00 %
04.05.2021 17:20 11,4 C 10,6 C 7,8 C 74 % 1000,3 hPa 0,2 l/m 0 min 2 min 88 W/m 25,7 km/h (4 Bft) 100,00 %
04.05.2021 17:22 11,1 C 10,0 C 6,1 C 76 % 1000,2 hPa 0,2 l/m 0 min 2 min 88 W/m 22,5 km/h (4 Bft) 100,00 %
04.05.2021 17:24 10,9 C 10,0 C 6,1 C 78 % 1000,2 hPa 0,0 l/m 0 min 2 min 98 W/m 19,3 km/h (3 Bft) 100,00 %
04.05.2021 17:26 10,8 C 10,0 C 6,1 C 79 % 1000,2 hPa 0,0 l/m 0 min 2 min 81 W/m 22,5 km/h (4 Bft) 97,87 %
04.05.2021 17:28 10,7 C 10,0 C 6,1 C 78 % 1000,4 hPa 0,0 l/m 0 min 0 min 70 W/m 19,3 km/h (3 Bft) 100,00 %
04.05.2021 17:30 10,7 C 10,0 C 6,1 C 78 % 1000,4 hPa 0,0 l/m 0 min 2 min 59 W/m 35,4 km/h (5 Bft) 100,00 %
04.05.2021 17:32 10,7 C 10,0 C 6,1 C 78 % 1000,5 hPa 0,0 l/m 0 min 2 min 55 W/m 25,7 km/h (4 Bft) 100,00 %
04.05.2021 17:34 10,6 C 10,0 C 6,1 C 78 % 1000,7 hPa 0,0 l/m 0 min 2 min 50 W/m 25,7 km/h (4 Bft) 97,87 %
04.05.2021 17:36 10,6 C 10,0 C 6,1 C 77 % 1000,7 hPa 0,0 l/m 0 min 2 min 41 W/m 41,8 km/h (6 Bft) 97,87 %
04.05.2021 17:38 10,5 C 10,0 C 6,1 C 77 % 1000,8 hPa 0,0 l/m 0 min 2 min 54 W/m 16,1 km/h (3 Bft) 95,74 %
04.05.2021 17:40 10,5 C 10,0 C 6,1 C 78 % 1000,8 hPa 0,0 l/m 0 min 2 min 90 W/m 19,3 km/h (3 Bft) 97,37 %
04.05.2021 17:42 10,5 C 11,1 C 6,7 C 77 % 1000,7 hPa 0,0 l/m 0 min 2 min 137 W/m 38,6 km/h (5 Bft) 93,62 %
04.05.2021 17:44 10,6 C 11,1 C 7,3 C 78 % 1000,6 hPa 0,0 l/m 0 min 2 min 185 W/m 25,7 km/h (4 Bft) 86,96 %
04.05.2021 17:46 10,6 C 10,6 C 7,3 C 78 % 1000,5 hPa 0,0 l/m 0 min 2 min 154 W/m 22,5 km/h (4 Bft) 95,74 %
04.05.2021 17:48 10,6 C 10,6 C 7,3 C 77 % 1000,5 hPa 0,0 l/m 0 min 0 min 155 W/m 19,3 km/h (3 Bft) 95,74 %
04.05.2021 17:50 10,6 C 10,6 C 7,3 C 77 % 1000,4 hPa 0,0 l/m 0 min 0 min 159 W/m 19,3 km/h (3 Bft) 85,11 %
04.05.2021 17:52 10,6 C 10,6 C 7,8 C 77 % 1000,4 hPa 0,0 l/m 0 min 0 min 152 W/m 22,5 km/h (4 Bft) 91,49 %
04.05.2021 17:54 10,7 C 10,6 C 7,8 C 77 % 1000,5 hPa 0,0 l/m 0 min 0 min 145 W/m 19,3 km/h (3 Bft) 89,36 %
04.05.2021 17:56 10,7 C 10,6 C 7,8 C 76 % 1000,5 hPa 0,0 l/m 0 min 0 min 138 W/m 12,9 km/h (3 Bft) 82,61 %
04.05.2021 17:58 10,8 C 10,6 C 7,8 C 76 % 1000,6 hPa 0,0 l/m 0 min 0 min 117 W/m 16,1 km/h (3 Bft) 97,87 %
04.05.2021 18:00 10,8 C 10,6 C 7,8 C 76 % 1000,6 hPa 0,0 l/m 0 min 0 min 106 W/m 16,1 km/h (3 Bft) 93,62 %
04.05.2021 18:02 10,8 C 10,6 C 7,8 C 76 % 1000,6 hPa 0,0 l/m 0 min 0 min 115 W/m 22,5 km/h (4 Bft) 91,49 %
04.05.2021 18:04 10,9 C 10,6 C 7,8 C 75 % 1000,7 hPa 0,0 l/m 0 min 0 min 99 W/m 35,4 km/h (5 Bft) 85,11 %
04.05.2021 18:08 10,9 C 10,6 C 7,8 C 76 % 1000,6 hPa 0,0 l/m 0 min 4 min 93 W/m 22,5 km/h (4 Bft) 94,62 %
04.05.2021 18:10 10,9 C 10,6 C 7,8 C 76 % 1000,7 hPa 0,0 l/m 0 min 2 min 82 W/m 22,5 km/h (4 Bft) 93,62 %
04.05.2021 18:12 10,8 C 10,0 C 7,8 C 76 % 1000,7 hPa 0,0 l/m 0 min 2 min 61 W/m 32,2 km/h (5 Bft) 87,23 %
04.05.2021 18:14 10,8 C 10,0 C 7,8 C 76 % 1000,8 hPa 0,0 l/m 0 min 2 min 70 W/m 32,2 km/h (5 Bft) 93,62 %
04.05.2021 18:16 10,6 C 10,0 C 7,8 C 75 % 1000,9 hPa 0,0 l/m 0 min 2 min 69 W/m 35,4 km/h (5 Bft) 87,23 %
04.05.2021 18:18 10,5 C 10,0 C 7,3 C 75 % 1000,9 hPa 0,0 l/m 0 min 2 min 70 W/m 38,6 km/h (5 Bft) 93,48 %
04.05.2021 18:20 10,4 C 9,4 C 6,7 C 76 % 1000,8 hPa 0,0 l/m 0 min 2 min 64 W/m 25,7 km/h (4 Bft) 93,62 %
04.05.2021 18:22 10,2 C 10,0 C 6,7 C 77 % 1001,1 hPa 0,0 l/m 0 min 2 min 98 W/m 35,4 km/h (5 Bft) 95,74 %
04.05.2021 18:24 10,1 C 9,4 C 6,1 C 78 % 1000,7 hPa 0,0 l/m 2 min 2 min 206 W/m 25,7 km/h (4 Bft) 95,74 %
04.05.2021 18:26 10,0 C 11,1 C 6,1 C 80 % 1000,9 hPa 0,0 l/m 2 min 2 min 278 W/m 22,5 km/h (4 Bft) 95,74 %
04.05.2021 18:28 9,9 C 11,1 C 6,1 C 81 % 1000,8 hPa 0,2 l/m 2 min 2 min 280 W/m 19,3 km/h (3 Bft) 95,74 %
04.05.2021 18:30 9,9 C 12,2 C 6,1 C 81 % 1000,8 hPa 0,0 l/m 2 min 0 min 318 W/m 19,3 km/h (3 Bft) 95,65 %
04.05.2021 18:32 10,0 C 11,1 C 6,1 C 81 % 1000,9 hPa 0,0 l/m 2 min 0 min 209 W/m 9,7 km/h (2 Bft) 95,74 %
04.05.2021 18:34 10,0 C 10,6 C 6,1 C 80 % 1000,9 hPa 0,0 l/m 0 min 0 min 101 W/m 19,3 km/h (3 Bft) 93,62 %
04.05.2021 18:36 10,0 C 11,1 C 6,7 C 80 % 1000,9 hPa 0,0 l/m 2 min 0 min 192 W/m 29,0 km/h (5 Bft) 85,11 %
04.05.2021 18:38 10,1 C 12,2 C 6,7 C 80 % 1000,8 hPa 0,0 l/m 2 min 0 min 350 W/m 16,1 km/h (3 Bft) 95,74 %
04.05.2021 18:40 10,2 C 11,7 C 7,3 C 80 % 1000,9 hPa 0,0 l/m 2 min 2 min 288 W/m 19,3 km/h (3 Bft) 95,74 %
04.05.2021 18:42 10,2 C 10,6 C 7,3 C 80 % 1000,9 hPa 0,0 l/m 0 min 2 min 75 W/m 12,9 km/h (3 Bft) 95,65 %
04.05.2021 18:44 10,2 C 10,0 C 7,3 C 80 % 1000,8 hPa 0,0 l/m 0 min 2 min 59 W/m 16,1 km/h (3 Bft) 95,74 %
04.05.2021 18:46 10,1 C 10,0 C 7,3 C 79 % 1000,9 hPa 0,0 l/m 0 min 2 min 78 W/m 32,2 km/h (5 Bft) 95,74 %
04.05.2021 18:48 10,1 C 10,0 C 7,3 C 78 % 1000,8 hPa 0,0 l/m 0 min 2 min 98 W/m 25,7 km/h (4 Bft) 93,62 %
04.05.2021 18:50 10,1 C 10,0 C 7,3 C 79 % 1000,9 hPa 0,0 l/m 0 min 2 min 154 W/m 19,3 km/h (3 Bft) 95,74 %
04.05.2021 18:52 10,1 C 10,0 C 7,3 C 79 % 1000,8 hPa 0,0 l/m 2 min 2 min 161 W/m 25,7 km/h (4 Bft) 97,87 %
04.05.2021 18:54 10,1 C 10,0 C 7,3 C 77 % 1000,7 hPa 0,0 l/m 0 min 0 min 126 W/m 22,5 km/h (4 Bft) 97,83 %
04.05.2021 18:56 10,2 C 10,0 C 7,3 C 77 % 1000,9 hPa 0,0 l/m 0 min 0 min 99 W/m 32,2 km/h (5 Bft) 95,74 %
04.05.2021 18:58 10,2 C 10,0 C 7,3 C 76 % 1000,9 hPa 0,0 l/m 0 min 0 min 61 W/m 22,5 km/h (4 Bft) 97,87 %
04.05.2021 19:00 10,3 C 10,0 C 7,3 C 75 % 1001,0 hPa 0,0 l/m 0 min 0 min 46 W/m 22,5 km/h (4 Bft) 97,87 %
04.05.2021 19:02 10,3 C 10,0 C 7,3 C 76 % 1001,2 hPa 0,0 l/m 0 min 0 min 37 W/m 41,8 km/h (6 Bft) 97,87 %
04.05.2021 19:04 10,1 C 9,4 C 7,3 C 76 % 1001,1 hPa 0,0 l/m 0 min 0 min 35 W/m 35,4 km/h (5 Bft) 95,74 %
04.05.2021 19:06 10,0 C 9,4 C 7,3 C 76 % 1001,4 hPa 0,0 l/m 0 min 2 min 29 W/m 25,7 km/h (4 Bft) 95,65 %
04.05.2021 19:08 9,9 C 8,9 C 6,7 C 78 % 1001,5 hPa 0,0 l/m 0 min 2 min 19 W/m 22,5 km/h (4 Bft) 97,87 %
04.05.2021 19:10 9,6 C 8,3 C 6,1 C 79 % 1001,6 hPa 0,0 l/m 0 min 2 min 15 W/m 22,5 km/h (4 Bft) 97,87 %
04.05.2021 19:12 9,4 C 7,2 C 5,0 C 81 % 1001,5 hPa 0,2 l/m 0 min 2 min 12 W/m 22,5 km/h (4 Bft) 95,74 %
04.05.2021 19:14 9,0 C 6,7 C 4,5 C 83 % 1001,5 hPa 0,2 l/m 0 min 2 min 19 W/m 32,2 km/h (5 Bft) 97,87 %
04.05.2021 19:16 8,8 C 6,7 C 4,5 C 84 % 1001,4 hPa 0,2 l/m 0 min 2 min 35 W/m 35,4 km/h (5 Bft) 97,87 %
04.05.2021 19:18 8,6 C 6,7 C 4,5 C 85 % 1001,4 hPa 0,0 l/m 0 min 2 min 38 W/m 22,5 km/h (4 Bft) 97,83 %
04.05.2021 19:20 8,5 C 6,7 C 4,5 C 85 % 1001,4 hPa 0,0 l/m 0 min 2 min 29 W/m 29,0 km/h (5 Bft) 97,87 %
04.05.2021 19:22 8,4 C 7,2 C 4,5 C 86 % 1001,3 hPa 0,0 l/m 0 min 2 min 33 W/m 25,7 km/h (4 Bft) 100,00 %
04.05.2021 19:24 8,4 C 7,2 C 4,5 C 86 % 1001,3 hPa 0,0 l/m 0 min 2 min 29 W/m 19,3 km/h (3 Bft) 100,00 %
04.05.2021 19:26 8,3 C 7,2 C 4,5 C 87 % 1001,3 hPa 0,0 l/m 0 min 2 min 22 W/m 22,5 km/h (4 Bft) 97,87 %
04.05.2021 19:28 8,1 C 7,2 C 4,5 C 87 % 1001,4 hPa 0,0 l/m 0 min 2 min 14 W/m 25,7 km/h (4 Bft) 100,00 %
04.05.2021 19:30 8,0 C 6,7 C 4,5 C 88 % 1001,4 hPa 0,2 l/m 0 min 2 min 9 W/m 22,5 km/h (4 Bft) 100,00 %
04.05.2021 19:32 7,9 C 6,7 C 3,9 C 88 % 1001,1 hPa 0,0 l/m 0 min 2 min 8 W/m 35,4 km/h (5 Bft) 100,00 %
04.05.2021 19:34 7,9 C 6,7 C 4,5 C 89 % 1001,2 hPa 0,0 l/m 0 min 2 min 10 W/m 25,7 km/h (4 Bft) 100,00 %
04.05.2021 19:36 7,9 C 6,7 C 4,5 C 89 % 1001,2 hPa 0,2 l/m 0 min 2 min 11 W/m 19,3 km/h (3 Bft) 97,87 %
04.05.2021 19:38 7,9 C 6,7 C 4,5 C 89 % 1001,3 hPa 0,0 l/m 0 min 2 min 12 W/m 19,3 km/h (3 Bft) 100,00 %
04.05.2021 19:40 7,9 C 6,7 C 4,5 C 89 % 1001,3 hPa 0,0 l/m 0 min 2 min 12 W/m 25,7 km/h (4 Bft) 100,00 %
04.05.2021 19:42 7,9 C 6,7 C 4,5 C 89 % 1001,4 hPa 0,0 l/m 0 min 2 min 10 W/m 29,0 km/h (5 Bft) 100,00 %
04.05.2021 19:44 7,9 C 6,7 C 3,9 C 88 % 1001,7 hPa 0,0 l/m 0 min 2 min 7 W/m 51,5 km/h (7 Bft) 98,00 %
04.05.2021 19:46 7,8 C 6,7 C 3,9 C 88 % 1001,5 hPa 0,2 l/m 0 min 2 min 5 W/m 29,0 km/h (5 Bft) 97,87 %
04.05.2021 19:48 7,8 C 6,1 C 3,9 C 88 % 1001,5 hPa 0,0 l/m 0 min 2 min 10 W/m 41,8 km/h (6 Bft) 100,00 %
04.05.2021 19:50 7,7 C 6,1 C 3,9 C 88 % 1001,3 hPa 0,0 l/m 0 min 2 min 13 W/m 29,0 km/h (5 Bft) 97,87 %
04.05.2021 19:52 7,7 C 6,1 C 3,9 C 88 % 1001,4 hPa 0,0 l/m 0 min 2 min 8 W/m 25,7 km/h (4 Bft) 100,00 %
04.05.2021 19:54 7,6 C 6,1 C 3,9 C 88 % 1001,4 hPa 0,0 l/m 0 min 2 min 5 W/m 25,7 km/h (4 Bft) 100,00 %
04.05.2021 19:56 7,6 C 6,1 C 3,9 C 88 % 1001,2 hPa 0,2 l/m 0 min 2 min 7 W/m 35,4 km/h (5 Bft) 97,87 %
04.05.2021 19:58 7,6 C 6,1 C 3,9 C 88 % 1001,3 hPa 0,0 l/m 0 min 2 min 7 W/m 12,9 km/h (3 Bft) 100,00 %
04.05.2021 20:00 7,6 C 6,1 C 4,5 C 88 % 1001,4 hPa 0,0 l/m 0 min 2 min 7 W/m 16,1 km/h (3 Bft) 100,00 %
04.05.2021 20:02 7,6 C 6,1 C 4,5 C 88 % 1001,4 hPa 0,0 l/m 0 min 2 min 7 W/m 25,7 km/h (4 Bft) 95,65 %
04.05.2021 20:04 7,6 C 6,1 C 4,5 C 88 % 1001,4 hPa 0,0 l/m 0 min 2 min 9 W/m 19,3 km/h (3 Bft) 100,00 %
04.05.2021 20:06 7,5 C 6,7 C 4,5 C 88 % 1001,5 hPa 0,0 l/m 0 min 0 min 11 W/m 22,5 km/h (4 Bft) 97,87 %
04.05.2021 20:08 7,5 C 6,7 C 4,5 C 89 % 1001,5 hPa 0,0 l/m 0 min 2 min 11 W/m 19,3 km/h (3 Bft) 100,00 %
04.05.2021 20:10 7,5 C 6,7 C 4,5 C 89 % 1001,5 hPa 0,0 l/m 0 min 2 min 8 W/m 22,5 km/h (4 Bft) 100,00 %
04.05.2021 20:12 7,5 C 6,7 C 4,5 C 89 % 1001,6 hPa 0,0 l/m 0 min 2 min 7 W/m 22,5 km/h (4 Bft) 93,62 %
04.05.2021 20:14 7,5 C 6,7 C 4,5 C 89 % 1001,7 hPa 0,0 l/m 0 min 2 min 3 W/m 29,0 km/h (5 Bft) 100,00 %
04.05.2021 20:16 7,4 C 6,7 C 4,5 C 89 % 1001,7 hPa 0,2 l/m 0 min 2 min 0 W/m 35,4 km/h (5 Bft) 97,87 %
04.05.2021 20:18 7,4 C 6,1 C 4,5 C 89 % 1001,8 hPa 0,0 l/m 0 min 2 min 0 W/m 32,2 km/h (5 Bft) 97,87 %
04.05.2021 20:20 7,4 C 6,1 C 4,5 C 90 % 1001,7 hPa 0,0 l/m 0 min 2 min 4 W/m 22,5 km/h (4 Bft) 97,87 %
04.05.2021 20:22 7,4 C 6,1 C 4,5 C 89 % 1001,5 hPa 0,0 l/m 0 min 2 min 5 W/m 19,3 km/h (3 Bft) 97,87 %
04.05.2021 20:24 7,5 C 6,7 C 4,5 C 90 % 1001,2 hPa 0,0 l/m 0 min 2 min 7 W/m 16,1 km/h (3 Bft) 97,87 %
04.05.2021 20:26 7,5 C 6,1 C 4,5 C 90 % 1001,1 hPa 0,0 l/m 0 min 2 min 9 W/m 16,1 km/h (3 Bft) 97,83 %
04.05.2021 20:28 7,5 C 6,1 C 4,5 C 90 % 1001,1 hPa 0,0 l/m 0 min 2 min 9 W/m 12,9 km/h (3 Bft) 97,87 %
04.05.2021 20:30 7,5 C 6,7 C 4,5 C 90 % 1001,0 hPa 0,0 l/m 0 min 0 min 10 W/m 16,1 km/h (3 Bft) 97,87 %
04.05.2021 20:32 7,5 C 6,7 C 4,5 C 90 % 1001,1 hPa 0,0 l/m 0 min 2 min 11 W/m 12,9 km/h (3 Bft) 97,87 %
04.05.2021 20:34 7,5 C 6,7 C 4,5 C 90 % 1001,2 hPa 0,0 l/m 0 min 0 min 11 W/m 9,7 km/h (2 Bft) 97,87 %
04.05.2021 20:36 7,5 C 6,7 C 4,5 C 90 % 1001,2 hPa 0,0 l/m 0 min 0 min 11 W/m 12,9 km/h (3 Bft) 95,74 %
04.05.2021 20:38 7,5 C 6,7 C 4,5 C 90 % 1001,3 hPa 0,0 l/m 0 min 0 min 12 W/m 9,7 km/h (2 Bft) 97,83 %
04.05.2021 20:40 7,5 C 6,7 C 4,5 C 89 % 1001,4 hPa 0,0 l/m 0 min 0 min 11 W/m 9,7 km/h (2 Bft) 97,87 %
04.05.2021 20:42 7,5 C 6,7 C 4,5 C 89 % 1001,5 hPa 0,0 l/m 0 min 0 min 8 W/m 19,3 km/h (3 Bft) 97,87 %
04.05.2021 20:44 7,5 C 6,7 C 4,5 C 89 % 1001,5 hPa 0,0 l/m 0 min 2 min 6 W/m 22,5 km/h (4 Bft) 97,87 %
04.05.2021 20:46 7,5 C 6,7 C 4,5 C 89 % 1001,5 hPa 0,0 l/m 0 min 2 min 5 W/m 12,9 km/h (3 Bft) 95,74 %
04.05.2021 20:48 7,6 C 6,7 C 4,5 C 89 % 1001,7 hPa 0,0 l/m 0 min 2 min 1 W/m 12,9 km/h (3 Bft) 97,87 %
04.05.2021 20:50 7,6 C 6,7 C 4,5 C 89 % 1001,9 hPa 0,0 l/m 0 min 2 min 0 W/m 22,5 km/h (4 Bft) 97,83 %
04.05.2021 20:52 7,6 C 7,2 C 4,5 C 89 % 1001,9 hPa 0,0 l/m 0 min 2 min 0 W/m 25,7 km/h (4 Bft) 95,74 %
04.05.2021 20:54 7,8 C 7,2 C 4,5 C 89 % 1002,1 hPa 0,0 l/m 0 min 2 min 0 W/m 19,3 km/h (3 Bft) 95,74 %
04.05.2021 20:56 7,8 C 7,2 C 4,5 C 89 % 1002,0 hPa 0,2 l/m 0 min 2 min 0 W/m 22,5 km/h (4 Bft) 97,87 %
04.05.2021 20:58 7,8 C 7,2 C 4,5 C 89 % 1001,9 hPa 0,0 l/m 0 min 2 min 0 W/m 22,5 km/h (4 Bft) 95,74 %
04.05.2021 21:00 7,8 C 7,2 C 4,5 C 88 % 1001,7 hPa 0,0 l/m 0 min 2 min 0 W/m 25,7 km/h (4 Bft) 97,83 %
04.05.2021 21:02 7,8 C 7,2 C 4,5 C 88 % 1001,8 hPa 0,0 l/m 0 min 2 min 0 W/m 16,1 km/h (3 Bft) 95,74 %
04.05.2021 21:04 7,8 C 6,7 C 4,5 C 88 % 1001,8 hPa 0,0 l/m 0 min 2 min 0 W/m 19,3 km/h (3 Bft) 100,00 %
04.05.2021 21:06 7,6 C 6,7 C 4,5 C 88 % 1001,7 hPa 0,0 l/m 0 min 0 min 0 W/m 16,1 km/h (3 Bft) 97,87 %
04.05.2021 21:08 7,6 C 6,7 C 4,5 C 88 % 1001,5 hPa 0,0 l/m 0 min 0 min 0 W/m 29,0 km/h (5 Bft) 100,00 %
04.05.2021 21:10 7,6 C 6,7 C 4,5 C 88 % 1001,4 hPa 0,0 l/m 0 min 2 min 0 W/m 25,7 km/h (4 Bft) 100,00 %
04.05.2021 21:12 7,6 C 6,7 C 4,5 C 88 % 1001,5 hPa 0,0 l/m 0 min 0 min 0 W/m 29,0 km/h (5 Bft) 100,00 %
04.05.2021 21:14 7,6 C 7,2 C 4,5 C 88 % 1001,5 hPa 0,0 l/m 0 min 0 min 0 W/m 19,3 km/h (3 Bft) 97,87 %
04.05.2021 21:16 7,6 C 7,2 C 4,5 C 88 % 1001,6 hPa 0,0 l/m 0 min 0 min 0 W/m 16,1 km/h (3 Bft) 97,87 %
04.05.2021 21:18 7,7 C 7,2 C 4,5 C 88 % 1001,7 hPa 0,0 l/m 0 min 0 min 0 W/m 22,5 km/h (4 Bft) 97,87 %
04.05.2021 21:20 7,7 C 7,2 C 4,5 C 88 % 1001,8 hPa 0,0 l/m 0 min 0 min 0 W/m 16,1 km/h (3 Bft) 97,87 %
04.05.2021 21:22 7,8 C 7,2 C 4,5 C 87 % 1001,8 hPa 0,0 l/m 0 min 0 min 0 W/m 16,1 km/h (3 Bft) 97,87 %
04.05.2021 21:24 7,8 C 7,2 C 4,5 C 87 % 1001,9 hPa 0,0 l/m 0 min 0 min 0 W/m 41,8 km/h (6 Bft) 100,00 %
04.05.2021 21:26 7,9 C 7,2 C 4,5 C 87 % 1002,0 hPa 0,0 l/m 0 min 0 min 0 W/m 16,1 km/h (3 Bft) 95,74 %
04.05.2021 21:28 7,9 C 7,2 C 4,5 C 87 % 1002,0 hPa 0,0 l/m 0 min 0 min 0 W/m 12,9 km/h (3 Bft) 97,87 %
04.05.2021 21:30 7,9 C 7,2 C 4,5 C 86 % 1002,0 hPa 0,0 l/m 0 min 0 min 0 W/m 16,1 km/h (3 Bft) 97,87 %
04.05.2021 21:32 7,9 C 7,2 C 4,5 C 86 % 1002,0 hPa 0,0 l/m 0 min 0 min 0 W/m 22,5 km/h (4 Bft) 97,87 %
04.05.2021 21:34 7,9 C 7,2 C 4,5 C 86 % 1002,1 hPa 0,0 l/m 0 min 0 min 0 W/m 16,1 km/h (3 Bft) 97,87 %
04.05.2021 21:36 7,8 C 7,2 C 4,5 C 86 % 1002,1 hPa 0,0 l/m 0 min 0 min 0 W/m 12,9 km/h (3 Bft) 97,83 %
04.05.2021 21:38 7,8 C 7,2 C 4,5 C 86 % 1002,2 hPa 0,0 l/m 0 min 0 min 0 W/m 35,4 km/h (5 Bft) 97,87 %
04.05.2021 21:40 7,9 C 7,2 C 4,5 C 86 % 1002,2 hPa 0,0 l/m 0 min 0 min 0 W/m 16,1 km/h (3 Bft) 97,87 %
04.05.2021 21:42 7,8 C 7,2 C 4,5 C 86 % 1002,3 hPa 0,0 l/m 0 min 2 min 0 W/m 32,2 km/h (5 Bft) 95,74 %
04.05.2021 21:44 7,8 C 7,2 C 4,5 C 86 % 1002,3 hPa 0,2 l/m 0 min 2 min 0 W/m 22,5 km/h (4 Bft) 97,87 %
04.05.2021 21:46 7,8 C 6,7 C 4,5 C 86 % 1002,2 hPa 0,0 l/m 0 min 2 min 0 W/m 19,3 km/h (3 Bft) 97,87 %
04.05.2021 21:48 7,7 C 6,7 C 4,5 C 86 % 1002,2 hPa 0,0 l/m 0 min 2 min 0 W/m 19,3 km/h (3 Bft) 97,83 %
04.05.2021 21:50 7,6 C 6,7 C 4,5 C 86 % 1002,1 hPa 0,0 l/m 0 min 2 min 0 W/m 25,7 km/h (4 Bft) 97,87 %
04.05.2021 21:52 7,5 C 6,1 C 4,5 C 86 % 1002,0 hPa 0,0 l/m 0 min 2 min 0 W/m 19,3 km/h (3 Bft) 97,87 %
04.05.2021 21:54 7,5 C 6,1 C 4,5 C 86 % 1002,1 hPa 0,0 l/m 0 min 2 min 0 W/m 16,1 km/h (3 Bft) 97,87 %
04.05.2021 21:56 7,5 C 6,1 C 4,5 C 87 % 1002,1 hPa 0,0 l/m 0 min 2 min 0 W/m 29,0 km/h (5 Bft) 95,74 %
04.05.2021 21:58 7,5 C 6,1 C 4,5 C 87 % 1002,0 hPa 0,0 l/m 0 min 2 min 0 W/m 22,5 km/h (4 Bft) 97,83 %
04.05.2021 22:00 7,4 C 6,1 C 4,5 C 87 % 1002,0 hPa 0,0 l/m 0 min 2 min 0 W/m 16,1 km/h (3 Bft) 93,62 %
04.05.2021 22:02 7,4 C 6,7 C 4,5 C 87 % 1002,1 hPa 0,0 l/m 0 min 2 min 0 W/m 22,5 km/h (4 Bft) 95,74 %
04.05.2021 22:04 7,3 C 6,7 C 4,5 C 87 % 1002,2 hPa 0,0 l/m 0 min 2 min 0 W/m 45,1 km/h (6 Bft) 97,87 %
04.05.2021 22:06 7,3 C 6,7 C 4,5 C 88 % 1002,2 hPa 0,0 l/m 0 min 2 min 0 W/m 25,7 km/h (4 Bft) 97,87 %
04.05.2021 22:08 7,3 C 6,7 C 4,5 C 88 % 1002,2 hPa 0,0 l/m 0 min 2 min 0 W/m 19,3 km/h (3 Bft) 97,87 %
04.05.2021 22:10 7,3 C 6,7 C 3,9 C 88 % 1002,2 hPa 0,0 l/m 0 min 2 min 0 W/m 38,6 km/h (5 Bft) 97,83 %
04.05.2021 22:12 7,3 C 6,7 C 3,9 C 88 % 1002,0 hPa 0,0 l/m 0 min 2 min 0 W/m 32,2 km/h (5 Bft) 97,62 %
04.05.2021 22:14 7,3 C 6,7 C 3,9 C 88 % 1002,2 hPa 0,0 l/m 0 min 2 min 0 W/m 35,4 km/h (5 Bft) 97,87 %
04.05.2021 22:16 7,3 C 6,7 C 3,9 C 88 % 1002,0 hPa 0,0 l/m 0 min 2 min 0 W/m 22,5 km/h (4 Bft) 95,74 %
04.05.2021 22:18 7,3 C 6,7 C 3,9 C 88 % 1002,0 hPa 0,0 l/m 0 min 2 min 0 W/m 25,7 km/h (4 Bft) 100,00 %
04.05.2021 22:20 7,3 C 6,7 C 3,9 C 88 % 1002,0 hPa 0,0 l/m 0 min 2 min 0 W/m 19,3 km/h (3 Bft) 100,00 %
04.05.2021 22:22 7,2 C 6,7 C 3,9 C 88 % 1001,9 hPa 0,0 l/m 0 min 2 min 0 W/m 25,7 km/h (4 Bft) 97,87 %
04.05.2021 22:24 7,3 C 6,7 C 3,9 C 88 % 1001,8 hPa 0,0 l/m 0 min 2 min 0 W/m 19,3 km/h (3 Bft) 97,83 %
04.05.2021 22:26 7,2 C 6,7 C 3,9 C 87 % 1001,8 hPa 0,0 l/m 0 min 0 min 0 W/m 29,0 km/h (5 Bft) 100,00 %
04.05.2021 22:28 7,3 C 6,7 C 3,9 C 87 % 1001,8 hPa 0,0 l/m 0 min 0 min 0 W/m 35,4 km/h (5 Bft) 100,00 %
04.05.2021 22:30 7,3 C 6,7 C 3,9 C 87 % 1001,8 hPa 0,0 l/m 0 min 2 min 0 W/m 12,9 km/h (3 Bft) 97,87 %
04.05.2021 22:32 7,3 C 6,7 C 3,9 C 87 % 1001,9 hPa 0,0 l/m 0 min 0 min 0 W/m 19,3 km/h (3 Bft) 89,58 %
04.05.2021 22:34 7,3 C 6,7 C 3,9 C 87 % 1001,8 hPa 0,0 l/m 0 min 0 min 0 W/m 19,3 km/h (3 Bft) 67,39 %
04.05.2021 22:36 7,3 C 6,7 C 4,5 C 87 % 1001,8 hPa 0,0 l/m 0 min 0 min 0 W/m 16,1 km/h (3 Bft) 100,00 %
04.05.2021 22:38 7,3 C 6,7 C 4,5 C 87 % 1001,9 hPa 0,0 l/m 0 min 0 min 0 W/m 12,9 km/h (3 Bft) 97,92 %
04.05.2021 22:40 7,3 C 6,7 C 3,9 C 87 % 1002,0 hPa 0,0 l/m 0 min 0 min 0 W/m 22,5 km/h (4 Bft) 100,00 %
04.05.2021 22:42 7,3 C 6,7 C 3,9 C 86 % 1002,0 hPa 0,0 l/m 0 min 0 min 0 W/m 16,1 km/h (3 Bft) 97,87 %
04.05.2021 22:44 7,3 C 6,7 C 3,9 C 86 % 1002,0 hPa 0,0 l/m 0 min 0 min 0 W/m 19,3 km/h (3 Bft) 100,00 %
04.05.2021 22:46 7,3 C 6,7 C 3,9 C 86 % 1002,1 hPa 0,0 l/m 0 min 0 min 0 W/m 19,3 km/h (3 Bft) 97,87 %
04.05.2021 22:48 7,3 C 6,1 C 3,9 C 86 % 1002,2 hPa 0,0 l/m 0 min 0 min 0 W/m 16,1 km/h (3 Bft) 97,67 %
04.05.2021 22:50 7,3 C 6,1 C 3,9 C 86 % 1002,0 hPa 0,0 l/m 0 min 0 min 0 W/m 9,7 km/h (2 Bft) 98,00 %
04.05.2021 22:52 7,2 C 6,1 C 3,9 C 87 % 1002,0 hPa 0,0 l/m 0 min 0 min 0 W/m 12,9 km/h (3 Bft) 97,92 %
04.05.2021 22:54 7,1 C 6,1 C 3,9 C 87 % 1002,0 hPa 0,0 l/m 0 min 0 min 0 W/m 19,3 km/h (3 Bft) 97,87 %
04.05.2021 22:56 7,1 C 6,1 C 3,9 C 87 % 1001,8 hPa 0,0 l/m 0 min 0 min 0 W/m 12,9 km/h (3 Bft) 97,67 %
04.05.2021 22:58 7,1 C 6,1 C 3,9 C 87 % 1001,9 hPa 0,0 l/m 0 min 0 min 0 W/m 6,4 km/h (2 Bft) 97,96 %
04.05.2021 23:00 7,0 C 6,1 C 3,9 C 87 % 1002,0 hPa 0,0 l/m 0 min 0 min 0 W/m 19,3 km/h (3 Bft) 97,87 %
04.05.2021 23:02 7,0 C 6,1 C 3,9 C 87 % 1002,1 hPa 0,0 l/m 0 min 0 min 0 W/m 12,9 km/h (3 Bft) 96,00 %
04.05.2021 23:04 7,0 C 6,1 C 3,9 C 87 % 1002,1 hPa 0,0 l/m 0 min 0 min 0 W/m 12,9 km/h (3 Bft) 97,87 %
04.05.2021 23:06 7,0 C 6,1 C 3,9 C 87 % 1002,1 hPa 0,0 l/m 0 min 0 min 0 W/m 19,3 km/h (3 Bft) 97,87 %
04.05.2021 23:08 7,0 C 6,1 C 3,9 C 88 % 1002,0 hPa 0,0 l/m 0 min 0 min 0 W/m 12,9 km/h (3 Bft) 97,96 %
04.05.2021 23:10 6,9 C 6,1 C 3,9 C 88 % 1002,1 hPa 0,0 l/m 0 min 0 min 0 W/m 19,3 km/h (3 Bft) 97,87 %
04.05.2021 23:12 6,9 C 6,1 C 3,9 C 88 % 1002,1 hPa 0,0 l/m 0 min 0 min 0 W/m 12,9 km/h (3 Bft) 97,87 %
04.05.2021 23:14 6,9 C 6,1 C 3,9 C 88 % 1002,1 hPa 0,0 l/m 0 min 0 min 0 W/m 16,1 km/h (3 Bft) 97,22 %
04.05.2021 23:16 6,9 C 6,1 C 3,9 C 88 % 1002,1 hPa 0,0 l/m 0 min 0 min 0 W/m 12,9 km/h (3 Bft) 97,87 %
04.05.2021 23:18 6,9 C 6,1 C 3,9 C 88 % 1002,1 hPa 0,0 l/m 0 min 0 min 0 W/m 19,3 km/h (3 Bft) 97,87 %
04.05.2021 23:20 6,9 C 6,1 C 3,9 C 88 % 1002,1 hPa 0,0 l/m 0 min 0 min 0 W/m 22,5 km/h (4 Bft) 97,87 %
04.05.2021 23:22 6,9 C 6,1 C 3,9 C 88 % 1002,1 hPa 0,0 l/m 0 min 0 min 0 W/m 9,7 km/h (2 Bft) 96,30 %
04.05.2021 23:24 6,9 C 6,1 C 3,9 C 88 % 1002,1 hPa 0,0 l/m 0 min 0 min 0 W/m 12,9 km/h (3 Bft) 98,00 %
04.05.2021 23:26 6,9 C 6,1 C 3,9 C 88 % 1002,0 hPa 0,0 l/m 0 min 0 min 0 W/m 16,1 km/h (3 Bft) 97,22 %
04.05.2021 23:28 6,8 C 6,1 C 3,9 C 88 % 1001,9 hPa 0,0 l/m 0 min 0 min 0 W/m 6,4 km/h (2 Bft) 100,00 %
04.05.2021 23:30 6,9 C 6,1 C 3,9 C 88 % 1001,9 hPa 0,0 l/m 0 min 0 min 0 W/m 9,7 km/h (2 Bft) 100,00 %
04.05.2021 23:32 6,8 C 6,1 C 3,9 C 88 % 1002,0 hPa 0,0 l/m 0 min 0 min 0 W/m 16,1 km/h (3 Bft) 100,00 %
04.05.2021 23:34 6,8 C 6,1 C 3,9 C 88 % 1002,1 hPa 0,0 l/m 0 min 0 min 0 W/m 12,9 km/h (3 Bft) 100,00 %
04.05.2021 23:36 6,8 C 6,1 C 3,9 C 88 % 1002,1 hPa 0,0 l/m 0 min 0 min 0 W/m 19,3 km/h (3 Bft) 100,00 %
04.05.2021 23:38 6,8 C 6,1 C 3,9 C 89 % 1002,1 hPa 0,0 l/m 0 min 0 min 0 W/m 25,7 km/h (4 Bft) 100,00 %
04.05.2021 23:40 6,8 C 6,1 C 3,9 C 89 % 1002,0 hPa 0,0 l/m 0 min 0 min 0 W/m 19,3 km/h (3 Bft) 100,00 %
04.05.2021 23:42 6,8 C 6,1 C 3,9 C 89 % 1002,0 hPa 0,0 l/m 0 min 0 min 0 W/m 19,3 km/h (3 Bft) 100,00 %
04.05.2021 23:44 6,8 C 6,1 C 3,9 C 89 % 1002,1 hPa 0,0 l/m 0 min 0 min 0 W/m 16,1 km/h (3 Bft) 97,83 %
04.05.2021 23:46 6,8 C 6,1 C 3,9 C 89 % 1002,1 hPa 0,0 l/m 0 min 0 min 0 W/m 3,2 km/h (1 Bft) 48,72 %
04.05.2021 23:48 6,8 C 6,1 C 3,9 C 89 % 1002,0 hPa 0,0 l/m 0 min 0 min 0 W/m 22,5 km/h (4 Bft) 97,92 %
04.05.2021 23:50 6,8 C 6,1 C 3,9 C 89 % 1002,0 hPa 0,0 l/m 0 min 0 min 0 W/m 12,9 km/h (3 Bft) 100,00 %
04.05.2021 23:52 6,8 C 6,1 C 3,9 C 89 % 1002,0 hPa 0,0 l/m 0 min 0 min 0 W/m 12,9 km/h (3 Bft) 100,00 %
04.05.2021 23:54 6,8 C 6,1 C 3,9 C 89 % 1002,1 hPa 0,0 l/m 0 min 0 min 0 W/m 12,9 km/h (3 Bft) 98,15 %
04.05.2021 23:56 6,7 C 6,1 C 3,9 C 89 % 1002,1 hPa 0,0 l/m 0 min 0 min 0 W/m 12,9 km/h (3 Bft) 98,00 %
04.05.2021 23:58 6,7 C 6,1 C 3,9 C 89 % 1002,1 hPa 0,0 l/m 0 min 0 min 0 W/m 6,4 km/h (2 Bft) 100,00 %
_ Min-Zeit 23:56 19:48 04:36 03:40 12:16 - - - - 23:46 23:46
Minimum _ 6,7 C 6,1 C 3,9 C 51 % 997,5 hPa - - - - 3,2 km/h (1 Bft) 48,72 %
_ Max-Zeit 16:20 16:12 13:18 11:14 00:00 04:16 08:14 06:08 13:20 11:32 00:24
Maximum _ 14,5 C 17,2 C 18,4 C 91 % 1008,1 hPa 0,2 l/m 2 min 4 min 1134 W/m 74,0 km/h
S-SO (8 Bft)
100,00 %
Durchschnitt _ 10,4 C 9,8 C 7,2 C 76 % 1000,7 hPa #5,2 l/m #2:12 h #9:38 h 191 W/m 31,4 km/h (5 Bft) 97,31 %
© 2021 W. Hausmann